     2              OBSERVATION DATA    GPS                 RINEX VERSION / TYPE
TRRINEXO-V2.3.1-LH UCLA/SCEC 28-FEB-1994                    PGM / RUN BY / DATE
                                                            COMMENT
Original Marker Name: W304 1934                             COMMENT
Campaign Name: Northridge 1994                              COMMENT
4-Character Station Name: 0110                              COMMENT
6-Character Antenna Code: TRMSST                            COMMENT
Vertical Measurement Point: BGP                             COMMENT
Vertical Offset to Rinex Ref. Point: 0.0597                 COMMENT
Radial Measurement Point: IGP                               COMMENT
Radial Offset to Rinex Ref. Point: 0.2403                   COMMENT
Antenna Height from Field Measurement: 1.2840 m             COMMENT
Original XYZ: -2566927.3052 -4607485.3937 3574572.2643      COMMENT
New XYZ position is based on association with SCEC monument COMMENT
E1E9H0C5+0011. Position of that monument is believed to be  COMMENT
valid to within 1 m horizontally; vertical accuracy         COMMENT
should be no worse than 3-times this value.                 COMMENT
                                                            COMMENT
Revised Rinex header created by UCSD GPS archive for        COMMENT
GSAC on 19-Apr-1999 (1999:109) 15:18:42 GMT                 COMMENT
For assistance contact dagnew@ucsd.edu or hjohnson@ucsd.edu COMMENT
                                                            COMMENT
W304 1934                                                   MARKER NAME
J. FARRELL CALIF DEPT TRANSPORTATION DISTRICT 7             OBSERVER / AGENCY
2765 TRIMBLE 4000 SST 4.81                                  REC # / TYPE / VERS
61988 TR 4000SST L1/L2 GEO                                  ANT # / TYPE
 -2566921.0000 -4607433.0000  3574535.0000                  APPROX POSITION XYZ
        1.2016        0.0000        0.0000                  ANTENNA: DELTA H/E/N
     1     2     0                                          WAVELENGTH FACT L1/2
     3    C1    L1    L2                                    # / TYPES OF OBSERV
    30                                                      INTERVAL
  1994     2    17    21     1   30.000000                  TIME OF FIRST OBS
  1994     2    17    23     0    0.000000                  TIME OF LAST OBS
     0                                                      # OF SATELLITES
                                                            END OF HEADER
 94  2 17 21  1 30.0000000  0  6 18 19 27 28 29 31
  20425051.969       14320.34317     11159.32917
  21179927.930         858.83617       669.53118
  22603999.445      -18867.48516    -14702.03216
  23628189.922        8324.44215      6486.22415
  21693403.180       41200.40717     32104.21317
  22974618.727      -18053.56216    -14067.37916
 94  2 17 21  2  0.0000000  0  6 18 19 27 28 29 31
  20430490.789       42914.890 7     33440.801 7
  21180208.867        2323.924 7      1811.184 8
  22596759.477      -56896.546 6    -44335.029 6
  23631354.156       24949.106 5     19440.548 5
  21709064.367      123493.667 7     96228.812 7
  22967723.461      -54279.921 6    -42295.682 6
 94  2 17 21  2 30.0000000  0  7 18  2 19 27 28 29 31
  20435944.742       71561.870 7     55763.133 7
  25036038.359      -36983.64713
  21180443.016        3555.828 7      2771.133 8
  22589466.781      -95224.627 6    -74201.031 6
  23634531.953       41656.195 5     32459.098 5
  21724717.500      205765.672 7    160336.850 7
  22960824.406      -90545.300 6    -70554.403 5
 94  2 17 21  3  0.0000000  0  7 18  2 19 27 28 29 31
  20441421.539      100344.019 7     78190.794 7
  25021938.898     -111092.715 3        -0.38612
  21180650.156        4652.460 7      3625.663 8
  22582135.578     -133765.169 6   -104232.593 6
  23637745.484       58550.764 5     45623.732 5
  21740389.391      288111.431 7    224502.358 7
  22953934.148     -126741.271 6    -98759.028 5
 94  2 17 21  3 30.0000000  0  7 18  2 19 27 28 29 31
  20446935.406      129329.473 7    100776.875 7
  25007819.797     -185318.666 4    -57838.571 2
  21180850.398        5688.443 7      4432.938 8
  22574772.125     -172438.258 6   -134367.441 6
  23641013.297       75706.122 5     58991.559 6
  21756085.102      370594.316 7    288774.718 7
  22947076.180     -162782.352 6   -126842.977 5
 94  2 17 21  4  0.0010000  0  7 18  2 19 27 28 29 31
  20452498.544      158559.145 7    123553.253 7
  24993672.552     -259631.028 3   -115744.163 3
  21181040.919        6701.232 7      5222.123 8
  22567391.278     -211226.122 6   -164591.737 6
  23644327.810       93155.892 6     72588.803 5
  21771811.185      453241.383 7    353175.007 7
  22940249.513     -198644.101 6   -154787.160 5
 94  2 17 21  4 30.0010000  0  7 18  2 19 27 28 29 31
  20458114.458      188065.152 7    146544.951 7
  24979518.903     -333994.781 3   -173689.802 3
  21181232.356        7723.924 7      6019.037 8
  22559994.106     -250100.918 6   -194883.785 6
  23647717.388      110944.283 6     86449.894 5
  21787573.669      536077.041 6    417722.253 7
  22933469.271     -234290.690 6   -182563.673 5
 94  2 17 21  5  0.0010000  0  7 18  2 19 27 28 29 31
  20463786.833      217869.069 7    169768.787 7
  24965364.841     -408386.146 4   -231656.987 2
  21181438.239        8785.305 7      6846.086 8
  22552588.239     -289026.430 6   -225215.322 6
  23651167.036      129097.864 5    100595.570 5
  21803378.083      619122.648 7    482433.091 7
  22926728.692     -269702.975 6   -210157.601 5
 94  2 17 21  5 30.0010000  0  7 18  2 19 27 28 29 31
  20469516.145      247986.872 7    193237.221 7
  24951200.122     -482801.461 3   -289642.884 1
  21181651.122        9899.148 7      7714.024 8
  22545171.153     -327987.650 6   -255574.704 6
  23654695.138      147627.395 5    115034.190 5
  21819222.497      702395.807 6    547321.262 7
  22920033.396     -304877.312 6   -237566.109 5
 94  2 17 21  6  0.0010000  0  7 18  2 19 27 28 29 31
  20475306.981      278422.883 7    216953.606 7
  24937037.419     -557229.422 3   -347638.587 2
  21181875.466       11075.942 7      8631.007 8
  22537755.020     -366971.602 6   -285951.791 6
  23658300.294      166558.808 5    129785.954 5
  21835116.208      785907.926 7    612395.615 7
  22913388.263     -339801.317 6   -264779.550 5
 94  2 17 21  6 30.0010000  0  7 18  2 19 27 28 29 31
  20481161.989      309177.406 7    240918.182 7
  24922879.333     -631657.495 4   -405634.350 3
  21182106.911       12322.691 7      9602.496 8
  22530339.325     -405940.000 6   -316316.733 6
  23661987.200      185914.621 5    144868.431 5
  21851055.653      869670.950 6    677665.491 7
  22906794.146     -374449.057 6   -291777.700 5
 94  2 17 21  7  0.0010000  0  7 18  2 19 27 28 29 31
  20487076.442      340249.786 7    265130.441 7
  24908708.669     -706092.971 3   -463635.926 3
  21182359.763       13642.930 7     10631.250 8
  22522929.685     -444887.870 6   -346665.677 6
  23665746.911      205696.664 5    160283.033 5
  21867041.622      953674.543 6    743122.819 7
  22900254.356     -408824.974 6   -318564.028 5
 94  2 17 21  7 30.0010000  0  7 18  2 19 27 28 29 31
  20493047.513      371643.518 7    289593.100 7
  24894547.630     -780522.179 3   -521632.549 2
  21182627.435       15039.273 7     11719.309 8
  22515523.435     -483815.160 6   -376998.606 6
  23669595.505      225903.039 5    176028.279 5
  21883068.731     1037918.144 6    808767.168 7
  22893765.200     -442920.817 6   -345132.106 6
 94  2 17 21  8  0.0010000  0  7 18  2 19 27 28 29 31
  20499087.802      403383.863 7    314325.843 7
  24880390.403     -854921.790 3   -579606.157 2
  21182908.481       16517.629 7     12871.275 8
  22508121.231     -522706.947 6   -407303.844 6
  23673522.802      246546.309 5    192113.986 5
  21899151.028     1122420.000 6    874612.747 7
  22887340.677     -476703.562 6   -371456.194 6
 94  2 17 21  8 30.0010000  0  7 18  2 19 27 28 29 31
  20505199.380      435492.265 7    339345.383 7
  24866239.388     -929305.679 4   -637567.493 2
  21183205.146       18085.076 7     14092.664 8
  22500723.739     -561559.327 6   -437578.399 6
  23677533.536      267618.331 5    208533.768 6
  21915283.692     1207191.437 6    940668.401 7
  22880969.169     -510168.407 6   -397532.578 6
 94  2 17 21  9  0.0010000  0  7 18  2 19 27 28 29 31
  20511381.802      467986.380 7    364665.488 7
  24852085.435    -1003662.895 3   -695508.053 2
  21183524.200       19753.654 7     15392.854 8
  22493337.013     -600387.304 6   -467833.938 6
  23681622.341      289114.129 5    225283.792 6
  21931465.817     1292238.802 6   1006939.053 7
  22874661.380     -543314.997 6   -423360.956 6
 94  2 17 21  9 30.0010000  0  7 18  2 19 27 28 29 31
  20517634.653      500850.840 7    390274.160 7
  24837939.013    -1077997.371 3   -753430.826 4
  21183858.458       21506.180 7     16758.473 8
  22485948.271     -639206.830 6   -498082.878 6
  23685786.646      311000.523 5    242338.197 6
  21947702.560     1377552.097 7   1073416.931 7
  22868415.286     -576146.063 6   -448943.460 6
 94  2 17 21 10  0.0010000  0  7 18  2 19 27 28 29 31
  20523960.286      534089.346 7    416174.297 7
  24823804.294    -1152318.161 4   -811342.990 4
  21184209.310       23346.858 7     18192.778 8
  22478566.622     -678007.297 6   -528316.964 6
  23690022.224      333289.969 5    259706.655 6
  21963987.942     1463132.443 7   1140102.893 7
  22862226.583     -608671.843 6   -474288.089 6
 94  2 17 21 10 30.0010000  0  7 18  2 19 27 28 29 31
  20530355.341      567697.723 7    442362.649 7
  24809657.981    -1226618.108 4   -869238.895 2
  21184577.185       25279.847 7     19699.021 8
  22471188.763     -716784.193 6   -558532.697 6
  23694343.302      355982.704 5    277389.347 5
  21980319.036     1548971.383 6   1206990.353 7
  22856087.231     -640909.319 6   -499408.060 6
 94  2 17 21 11  0.0010000  0  7 18  2 19 27 28 29 31
  20536821.552      601661.536 7    468827.961 7
  24795526.927    -1300878.154 5   -927103.727 2
  21184957.310       27286.392 7     21262.579 8
  22463812.310     -755544.888 6   -588735.815 6
  23698737.278      379076.880 5    295384.858 5
  21996706.427     1635063.208 7   1274074.882 7
  22850007.442     -672861.774 6   -524305.955 6
 94  2 17 21 11 30.0010000  0  7 18  2 19 27 28 29 31
  20543353.114      635987.302 7    495575.307 7
  24781408.396    -1375090.556 4   -984931.448 4
  21185353.825       29364.648 7     22882.015 8
  22456445.091     -794269.160 6   -618910.530 6
  23703213.497      402593.497 5    313709.542 5
  22013137.630     1721415.514 6   1341362.368 7
  22843984.341     -704515.626 6   -548971.171 6
 94  2 17 21 12  0.0010000  0  7 18  2 19 27 28 29 31
  20549959.591      670715.663 7    522636.364 7
  24767298.442    -1449223.128 4  -1042696.930 4
  21185765.396       31535.453 7     24573.574 8
  22449083.036     -832933.841 6   -649038.813 6
  23707776.794      426573.443 5    332395.259 5
  22029623.403     1808058.131 6   1408876.076 6
  22838026.724     -735838.468 6   -573378.457 6
 94  2 17 21 12 30.0010000  0  7 18  2 19 27 28 29 31
  20556642.849      705843.970 7    550009.073 7
  24753207.442    -1523271.766 5  -1100397.055 5
  21186197.567       33787.382 7     26328.345 8
  22441738.271     -871548.291 6   -679127.966 6
  23712428.450      451012.145 5    351438.466 5
  22046168.114     1894988.100 7   1476613.704 6
  22832132.935     -766798.380 6   -597502.964 6
 94  2 17 21 13  0.0010000  0  7 18  2 19 27 28 29 31
  20563405.247      741365.568 7    577688.236 7
  24739129.528    -1597243.923 4  -1158037.562 4
  21186640.435       36132.484 7     28155.716 8
  22434398.763     -910116.848 6   -709181.356 6
  23717168.778      475920.128 5    370847.354 6
  22062762.692     1982199.091 6   1544570.300 7
  22826319.192     -797375.230 6   -621328.994 6
 94  2 17 21 13 30.0010000  0  7 18  2 19 27 28 29 31
  20570237.474      777274.371 7    605669.119 7
  24725067.614    -1671147.264 4  -1215624.484 2
  21187109.192       38583.177 7     30065.378 8
  22427066.919     -948652.282 6   -739208.928 6
  23721996.450      501297.901 5    390622.291 5
  22079409.606     2069681.891 6   1612738.694 7
  22820572.521     -827558.710 6   -644848.513 6
 94  2 17 21 14  0.0010000  0  7 18  2 19 27 28 29 31
  20577141.755      813563.267 7    633946.181 7
  24711016.333    -1744984.142 5  -1273159.566 2
  21187596.192       41154.054 7     32068.684 8
  22419736.216     -987165.431 6   -769219.146 6
  23726919.388      527143.082 5    410761.431 5
  22096107.450     2157433.402 6   1681116.473 6
  22814903.450     -857345.578 6   -668058.986 6
 94  2 17 21 14 30.0010000  0  7 18  2 19 27 28 29 31
  20584119.989      850230.335 7    662517.916 7
  24696977.700    -1818757.262 5  -1330645.044 2
  21188112.622       43865.496 7     34181.522 8
  22412414.106    -1025640.249 6   -799199.500 6
  23731922.942      553460.347 5    431268.441 5
  22112857.083     2245449.930 6   1749700.765 7
  22809308.036     -886741.224 6   -690964.622 6
 94  2 17 21 15  0.0010000  0  7 18  2 19 27 28 29 31
  20591170.997      887272.002 7    691381.554 7
  24682951.919    -1892471.203 5  -1388084.385 2
  21188655.802       46722.947 7     36408.134 8
  22405097.146    -1064084.866 6   -829156.300 6
  23737016.942      580231.608 5    452129.198 5
  22129653.700     2333721.507 7   1818483.788 7
  22803783.099     -915777.655 6   -713590.346 6
 94  2 17 21 15 30.0010000  0  7 18  2 19 27 28 29 31
  20598293.013      924713.091 7    720556.427 7
  24668938.575    -1966111.291 4  -1445466.169 3
  21189228.349       49726.754 7     38748.785 8
  22397791.435    -1102485.116 6   -859078.544 6
  23742199.685      607458.889 5    473345.287 5
  22146506.599     2422270.779 7   1887483.195 7
  22798321.403     -944460.963 6   -735940.936 6
 94  2 17 21 16  0.0010000  0  7 18  2 19 27 28 29 31
  20605497.247      962564.887 7    750051.329 7
  24654935.427    -2039684.580 5  -1502795.927 3
  21189825.130       52859.345 7     41189.782 8
  22390496.567    -1140822.146 6   -888951.506 6
  23747461.286      635134.561 5    494910.760 5
  22163408.653     2511098.945 6   1956699.933 7
  22792934.731     -972798.819 6   -758022.333 6
 94  2 17 21 16 30.0010000  0  7 18  2 19 27 28 29 31
  20612780.349     1000843.522 7    779878.833 7
  24640949.341    -2113176.939 4  -1560062.576 2
  21190444.481       56106.299 7     43719.891 8
  22383213.974    -1179087.748 6   -918768.822 6
  23752816.896      663261.077 5    516827.558 5
  22180366.911     2600213.193 7   2026139.578 7
  22787607.474    -1000779.290 6   -779825.248 6
 94  2 17 21 17  0.0010000  0  7 18  2 19 27 28 29 31
  20620145.841     1039551.379 7    810040.797 7
  24626980.380    -2186574.478 3  -1617255.376 3
  21191079.130       59453.332 7     46327.977 8
  22375945.630    -1217288.461 6   -948535.574 6
  23758263.575      691849.460 5    539104.240 5
  22197381.489     2689628.646 6   2095813.936 7
  22782352.981    -1028379.784 6   -801332.098 6
 94  2 17 21 17 30.0010000  0  7 18  2 19 27 28 29 31
  20627594.677     1078693.716 7    840541.313 7
  24613037.263    -2259873.062 4  -1674371.072 2
  21191732.138       62887.899 7     49004.268 8
  22368690.544    -1255421.841 6   -978249.852 6
  23763788.278      720915.402 5    561753.070 5
  22214456.442     2779351.828 6   2165728.067 6
  22777178.513    -1055583.824 6   -822530.025 6
 94  2 17 21 18  0.0010000  0  7 18  2 19 27 28 29 31
  20635124.278     1118252.406 7    871366.266 7
  24599103.513    -2333080.313 4  -1731415.592 2
  21192398.575       66398.966 7     51740.179 8
  22361443.755    -1293499.793 6  -1007920.957 6
  23769408.122      750448.289 5    584765.723 5
  22231583.794     2869360.233 7   2235864.461 7
  22772080.685    -1082381.700 6   -843411.458 6
 94  2 17 21 18 30.0010000  0  7 18  2 19 27 28 29 31
  20642725.810     1158203.946 7    902497.337 7
  24585189.794    -2406194.589 4  -1788387.701 3
  21193087.138       70002.421 7     54548.078 8
  22354205.685    -1331533.202 6  -1037557.326 6
  23775110.974      780445.176 5    608139.949 5
  22248767.950     2959647.889 6   2306218.455 6
  22767057.169    -1108778.113 6   -863980.071 6
 94  2 17 21 19  0.0010000  0  7 18  2 19 27 28 29 31
  20650399.419     1198537.875 7    933926.373 7
  24571300.966    -2479215.117 4  -1845286.703 3
  21193793.770       73722.089 7     57446.531 8
  22346978.567    -1369510.575 6  -1067150.049 7
  23780913.411      810906.888 5    631876.410 5
  22266000.536     3050222.404 6   2376795.976 6
  22762108.435    -1134777.341 6   -884239.170 6
 94  2 17 21 19 30.0010000  0  7 18  2 19 27 28 29 31
  20658150.021     1239264.712 7    965661.564 7
  24557417.294    -2552140.323 4  -1902111.451 4
  21194530.630       77583.897 7     60455.730 8
  22339762.833    -1407411.346 6  -1096683.088 7
  23786797.653      841835.166 5    655976.418 6
  22283293.013     3141091.103 6   2447602.731 6
  22757238.489    -1160371.249 6   -904182.459 6
 94  2 17 21 20  0.0010000  0  7 18  2 19 27 28 29 31
  20665971.646     1280374.303 7    997695.010 7
  24543556.419    -2624974.239 5  -1958865.068 2
  21195293.466       81593.662 7     63580.227 8
  22332571.200    -1445227.972 6  -1126150.564 7
  23792773.716      873225.805 5    680436.711 5
  22300639.192     3232243.298 6   2518630.375 6
  22752443.599    -1185560.945 6   -923810.770 6
 94  2 17 21 20 30.0010000  0  7 18  2 19 27 28 29 31
  20673870.466     1321871.335 7   1030030.345 7
  24529716.606    -2697703.453 5  -2015537.189 4
  21196086.739       85754.955 7     66822.819 8
  22325389.677    -1482956.954 6  -1155549.750 6
  23798837.481      905090.329 6    705266.247 4
  22318041.310     3323686.103 6   2589884.488 6
  22747730.770    -1210349.117 6   -943126.228 6
 94  2 17 21 21  0.0010000  0  7 18  2 19 27 28 29 31
  20681846.794     1363790.506 7   1062694.636 7
  24515900.528    -2770309.733 4  -2072113.365 3
  21196905.114       90065.386 7     70181.577 8
  22318227.841    -1520598.078 6  -1184880.478 7
  23804992.489      937447.185 5    730479.439 5
  22335497.981     3415425.048 6   2661369.340 6
  22743090.356    -1234719.239 6   -962115.876 6
 94  2 17 21 21 30.0010000  0  7 18  2 19 27 28 29 31
  20689905.692     1406141.769 7   1095695.617 7
  24502108.599    -2842791.802 5  -2128592.798 3
  21197748.528       94508.055 7     73643.390 8
  22311077.052    -1558167.712 6  -1214155.500 7
  23811247.599      970301.760 5    756080.450 6
  22353007.247     3507445.781 6   2733073.765 6
  22738531.989    -1258662.174 6   -980772.676 6
 94  2 17 21 22  0.0010000  0  7 18  2 19 27 28 29 31
  20698044.450     1448916.543 7   1129026.599 7
  24488344.356    -2915130.720 5  -2184960.737 5
  21198620.325       99073.716 7     77201.050 8
  22303937.763    -1595684.019 6  -1243388.947 7
  23817594.403     1003655.962 5    782070.801 5
  22370571.458     3599740.682 6   2804991.826 6
  22734055.231    -1282195.152 6   -999110.028 6
 94  2 17 21 22 30.0010000  0  7 18  2 19 27 28 29 31
  20706266.708     1492121.515 7   1162692.805 7
  24474605.731    -2987316.765 4  -2241209.497 5
  21199511.278      103766.034 7     80857.406 8
  22296807.185    -1633162.606 6  -1272592.999 6
  23824035.349     1037513.153 5    808453.068 5
  22388189.294     3692320.996 6   2877132.289 6
  22729659.442    -1305312.025 6  -1017123.134 6
 94  2 17 21 23  0.0010000  0  7 18  2 19 27 28 29 31
  20714570.372     1535750.493 7   1196689.404 7
  24460894.356    -3059378.654 5  -2297361.474 5
  21200425.786      108576.218 7     84605.606 8
  22289683.075    -1670604.082 6  -1301768.153 6
  23830570.185     1071857.582 5    835214.999 5
  22405863.489     3785185.798 6   2949494.439 6
  22725335.583    -1328016.939 6  -1034815.228 6
 94  2 17 21 23 30.0010000  0  7 18  2 19 27 28 29 31
  20722951.778     1579792.847 7   1231008.111 7
  24447201.599    -3131322.507 5  -2353421.547 5
  21201365.513      113513.703 7     88452.991 8
  22282566.583    -1707991.601 6  -1330901.261 6
  23837198.560     1106686.105 5    862354.136 5
  22423588.927     3878338.194 6   3022080.668 6
  22721092.591    -1350312.431 6  -1052188.284 6
 94  2 17 21 24  0.0010000  0  7 18  2 19 27 28 29 31
  20731411.802     1624254.615 7   1265653.637 7
  24433534.997    -3203157.984 5  -2409397.143 5
  21202331.036      118587.334 7     92406.481 8
  22275465.591    -1745310.381 6  -1359980.796 6
  23843916.919     1141990.996 5    889864.449 5
  22441367.692     3971782.702 6   3094894.510 6
  22716929.872    -1372195.283 6  -1069239.792 6
 94  2 17 21 24 30.0010000  0  7 18  2 19 27 28 29 31
  20739953.528     1669143.257 7   1300631.786 7
  24419879.528    -3274915.817 5  -2465312.234 5
  21203321.544      123797.380 7     96466.252 8
  22268378.067    -1782557.217 6  -1389004.267 6
  23850724.317     1177759.657 5    917736.140 5
  22459205.724     4065512.238 6   3167930.468 6
  22712848.630    -1393642.213 6  -1085951.617 6
 94  2 17 21 25  0.0010000  0  7 18  2 19 27 28 29 31
  20748579.263     1714467.928 7   1335949.711 7
  24406241.489    -3346595.434 5  -2521166.368 4
  21204343.177      129152.570 7    100639.135 8
  22261303.606    -1819711.592 6  -1417955.702 6
  23857619.841     1213989.845 5    945967.466 5
  22477092.435     4159517.732 6   3241181.449 6
  22708853.825    -1414646.023 6  -1102318.152 6
 94  2 17 21 25 30.0010000  0  7 18  2 19 27 28 29 31
  20757288.544     1760235.969 7   1371613.107 7
  24392619.911    -3418156.707 4  -2576928.322 5
  21205394.356      134677.859 7    104944.563 8
  22254257.036    -1856763.021 6  -1446826.927 7
  23864608.177     1250705.417 5    974576.993 5
  22495037.466     4253804.669 6   3314651.744 6
  22704943.114    -1435175.896 6  -1118315.377 6
 94  2 17 21 26  0.0010000  0  7 18  2 19 27 28 29 31
  20766082.731     1806445.832 7   1407620.792 7
  24379026.872    -3489593.456 5  -2632593.238 3
  21206472.224      140359.693 7    109371.967 8
  22247225.442    -1893721.387 6  -1475625.614 7
  23871679.700     1287898.573 5   1003558.664 5
  22513035.013     4348375.628 6   3388343.333 6
  22701128.856    -1455226.285 6  -1133938.975 6
 94  2 17 21 26 30.0010000  0  7 18  2 19 27 28 29 31
  20774956.810     1853078.458 7   1443957.896 7
  24365453.177    -3560903.503 4  -2688159.411 3
  21207586.396      146181.692 7    113908.594 8
  22240206.794    -1930593.281 6  -1504356.930 7
  23878847.278     1325566.835 5   1032910.510 5
  22531083.435     4443228.474 6   3462254.584 6
  22697400.849    -1474812.628 6  -1149200.984 6
 94  2 17 21 27  0.0010000  0  7 18  2 19 27 28 29 31
  20783911.864     1900136.319 7   1480626.360 7
  24351915.747    -3632062.173 5  -2743607.651 4
  21208716.388      152145.102 7    118555.401 8
  22233210.028    -1967362.806 6  -1533008.486 7
  23886110.903     1363730.989 5   1062648.788 5
  22549189.044     4538385.186 6   3536402.616 6
  22693762.044    -1493950.989 6  -1164113.916 6
 94  2 17 21 27 30.0010000  0  8 18  2 19 16 27 28 29 31
  20792941.247     1947591.743 7   1517604.594 7
  24338402.458    -3703080.426 5  -2798946.467 3
  21209873.716      158227.816 7    123295.178 8
  25199399.356          -0.34513
  22226227.489    -2004049.823 6  -1561595.742 7
  23893467.333     1402380.688 5   1092765.372 5
  22567354.380     4633845.653 6   3610787.346 6
  22690202.036    -1512658.022 6  -1178690.759 6
 94  2 17 21 28  0.0010000  0  8 18  2 19 16 27 28 29 31
  20802052.903     1995467.418 7   1554910.314 7
  24324914.333    -3773963.795 5  -2854180.174 4
  21211052.825      164425.735 7    128124.734 8
  25189940.974      -49695.508 3
  22219263.974    -2040650.577 6  -1590115.775 7
  23900913.747     1441516.530 5   1123260.787 5
  22585580.271     4729617.256 6   3685414.521 6
  22686724.208    -1530928.644 6  -1192927.531 6
 94  2 17 21 28 30.0010000  0  8 18  2 19 16 27 28 29 31
  20811241.989     2043760.019 7   1592540.913 7
  24311449.138    -3844719.079 5  -2909314.099 4
  21212258.255      170737.146 7    133042.722 8
  25180552.356      -99044.529 4    -19193.05512
  22212314.450    -2077169.651 6  -1618572.188 7
  23908455.653     1481143.267 5   1154138.700 5
  22603858.013     4825680.135 6   3760268.646 6
  22683326.802    -1548768.781 6  -1206828.848 6
 94  2 17 21 29  0.0010000  0  8 18  2 19 16 27 28 29 31
  20820510.872     2092467.487 7   1630494.776 7
  24298004.974    -3915340.174 5  -2964343.456 5
  21213476.083      177158.838 7    138046.632 8
  25171229.591     -148039.266 4    -57370.703 2
  22205378.552    -2113620.937 6  -1646975.743 7
  23916089.106     1521252.557 5   1185392.664 5
  22622189.817     4922005.460 6   3835327.289 6
  22680017.911    -1566164.666 6  -1220384.000 6
 94  2 17 21 29 30.0010000  0  8 18  2 19 16 27 28 29 31
  20829861.099     2141609.391 7   1668787.160 7
  24284603.146    -3985808.320 5  -3019253.645 4
  21214723.771      183704.000 7    143146.763 8
  25161973.669     -196666.606 4    -95262.054 1
  22198455.599    -2149991.728 6  -1675316.602 7
  23923811.489     1561840.113 5   1217019.326 5
  22640571.950     5018580.718 6   3910580.696 6
  22676798.560    -1583084.388 6  -1233568.112 6
 94  2 17 21 30  0.0010000  0  8 18  2 19 16 27 28 29 31
  20839292.997     2191168.254 7   1707404.451 7
  24271210.310    -4056165.193 5  -3074077.144 4
  21215983.974      190327.914 7    148308.250 8
  25152779.192     -244974.221 4   -132904.245 1
  22191542.747    -2186323.889 6  -1703627.347 7
  23931620.653     1602869.399 5   1248990.199 5
  22658983.075     5115359.168 6   3985992.423 6
  22673662.989    -1599562.466 6  -1246408.086 6
 94  2 17 21 30 30.0010000  0  8 18  2 19 16 27 28 29 31
  20848800.052     2241133.681 7   1746338.531 7
  24257847.231    -4126400.088 5  -3128805.582 5
  21217259.896      197032.513 7    153532.616 8
  25143648.645     -292968.682 3   -170302.494 1
  22184635.692    -2222614.696 6  -1731905.866 7
  23939509.247     1644342.294 5   1281306.772 5
  22677438.372     5212343.438 6   4061564.519 6
  22670612.989    -1615602.033 6  -1258906.366 6
 94  2 17 21 31  0.0010000  0  8 18  2 19 16 27 28 29 31
  20858395.349     2291553.829 7   1785626.942 7
  24244514.935    -4196455.231 5  -3183393.958 5
  21218564.044      203883.311 7    158870.905 8
  25134590.716     -340580.512 3   -207402.558 1
  22177752.067    -2258803.780 6  -1760105.125 7
  23947502.138     1686319.423 5   1314016.276 5
  22695950.935     5309605.144 6   4137352.806 6
  22667651.911    -1631136.359 6  -1271010.963 6
 94  2 17 21 31 30.0010000  0  8 18  2 19 16 27 28 29 31
  20868072.989     2342411.289 7   1825256.118 7
  24231214.216    -4266359.392 5  -3237864.713 5
  21219892.771      210868.248 7    164313.721 8
  25125598.536     -387826.070 4   -244217.219 1
  22170881.614    -2294907.086 6  -1788237.540 7
  23955579.466     1728791.232 5   1347111.242 5
  22714507.872     5407150.675 6   4213362.258 6
  22664789.364    -1646185.661 6  -1282737.624 6
 94  2 17 21 32  0.0010000  0  8 18  2 19 16 27 28 29 31
  20877831.349     2393697.939 7   1865219.723 7
  24217937.294    -4336123.191 5  -3292226.044 5
  21221246.263      217992.685 7    169865.232 8
  25116672.567     -434695.876 3   -280739.048 2
  22164025.450    -2330930.935 6  -1816308.055 7
  23963764.958     1771774.960 5   1380605.113 5
  22733132.263     5504998.182 6   4289607.010 6
  22662022.356    -1660747.875 6  -1294084.730 6
 94  2 17 21 32 30.0010000  0  8 18  2 19 16 27 28 29 31
  20887670.396     2445402.016 7   1905508.598 7
  24204686.560    -4405748.937 5  -3346479.839 5
  21222633.567      225267.786 7    175534.160 8
  25107833.021     -481186.520 4   -316965.442 1
  22157187.075    -2366871.132 6  -1844313.358 7
  23972033.606     1815262.988 5   1414491.953 5
  22751808.700     5603145.795 6   4366085.621 6
  22659340.067    -1674830.566 6  -1305058.185 6
 94  2 17 21 33  0.0010000  0  8 18  2 19 16 27 28 29 31
  20897590.122     2497519.127 7   1946119.318 7
  24191461.528    -4475252.835 5  -3400638.650 5
  21224045.599      232684.387 7    181313.337 8
  25099056.052     -527307.638 3   -352903.901 2
  22150362.497    -2402726.719 6  -1872252.752 7
  23980403.310     1859252.203 5   1448769.319 5
  22770539.700     5701577.676 6   4442785.722 6
  22656747.200    -1688446.502 6  -1315667.952 6
 94  2 17 21 33 30.0010000  0  8 18  2 19 16 27 28 29 31
  20907591.724     2550083.535 7   1987078.576 7
  24178261.122    -4544619.207 5  -3454690.322 5
  21225484.083      240251.848 7    187210.065 8
  25090347.356     -573054.331 4   -388550.592 3
  22143558.489    -2438486.096 6  -1900117.176 7
  23988871.747     1903741.638 5   1483436.444 6
  22789326.685     5800307.496 6   4519718.014 6
  22654242.989    -1701588.941 6  -1325908.770 6
 94  2 17 21 34  0.0010000  0  8 18  2 19 16 27 28 29 31
  20917680.083     2603100.950 7   2028390.831 7
  24165089.575    -4613834.951 5  -3508624.629 5
  21226953.255      247967.608 7    193222.370 8
  25081715.021     -618427.887 4   -423906.531 3
  22136771.130    -2474143.675 6  -1927902.275 7
  23997435.013     1948723.164 5   1518487.009 5
  22808170.044     5899330.403 6   4596878.661 6
  22651834.317    -1714262.754 6  -1335784.419 6
 94  2 17 21 34 30.0010000  0  8 18  2 19 16 27 28 29 31
  20927858.427     2656580.566 7   2070063.237 7
  24151951.708    -4682878.160 5  -3562424.454 5
  21228448.442      255839.478 7    199356.296 8
  25073157.294     -663421.807 5   -458966.660 2
  22130007.099    -2509693.654 6  -1955603.537 7
  24006086.310     1994196.438 5   1553920.745 5
  22827068.302     5998637.259 6   4674260.578 6
  22649515.294    -1726466.247 6  -1345293.606 6
 94  2 17 21 35  0.0010000  0  8 18  2 19 16 27 28 29 31
  20938120.200     2710501.567 7   2112079.585 7
  24138846.271    -4751752.856 5  -3616092.988 5
  21229974.778      263855.584 7    205602.637 8
  25064661.630     -708042.427 5   -493735.901 4
  22123257.513    -2545156.752 6  -1983237.105 7
  24014829.208     2040139.411 5   1589720.450 5
  22846016.185     6098213.598 6   4751852.474 6
  22647279.536    -1738203.780 6  -1354439.700 7
 94  2 17 21 35 30.0010000  0  8 18  2 19 16 27 28 29 31
  20948461.138     2764851.263 7   2154429.978 8
  24125770.255    -4820478.417 5  -3669645.316 5
  21231527.224      272006.707 7    211954.173 8
  25056246.997     -752292.230 5   -528216.184 3
  22116522.638    -2580565.049 6  -2010827.962 7
  24023650.169     2086516.267 5   1625858.226 5
  22865011.677     6198042.855 6   4829641.467 6
  22645135.372    -1749480.261 6  -1363226.525 7
 94  2 17 21 36  0.0010000  0  8 18  2 19 16 27 28 29 31
  20958887.567     2819636.931 7   2197120.091 8
  24112720.075    -4889033.464 5  -3723064.760 5
  21233107.364      280316.084 7    218429.023 8
  25047901.192     -796141.586 4   -562384.463 3
  22109798.552    -2615893.253 6  -2038356.425 7
  24032564.200     2133354.777 5   1662355.768 5
  22884058.661     6298123.225 6   4907626.123 6
  22643083.731    -1760270.155 6  -1371634.194 7
 94  2 17 21 36 30.0010000  0  8 18  2 19 16 27 28 29 31
  20969397.169     2874871.926 7   2240160.324 8
  24099713.669    -4957391.739 5  -3776330.895 5
  21234726.880      288822.800 7    225057.641 8
  25039638.942     -839549.307 4   -596208.603 3
  22103098.060    -2651103.092 6  -2065792.642 8
  24041575.044     2180691.855 5   1699241.775 5
  22903156.294     6398487.275 6   4985831.838 6
  22641126.505    -1770528.833 6  -1379627.941 6
 94  2 17 21 37  0.0010000  0  8 18  2 19 16 27 28 29 31
  20979990.661     2930533.581 7   2283533.035 8
  24086735.841    -5025583.400 5  -3829467.176 5
  21236376.786      297494.556 7    231814.853 8
  25031454.005     -882540.179 3   -629707.923 3
  22096417.513    -2686208.410 6  -2093147.418 7
  24050677.716     2228502.170 5   1736496.533 6
  22922306.763     6499124.581 6   5064250.464 6
  22639275.716    -1780270.577 6  -1387218.887 6
 94  2 17 21 37 30.0010000  0  8 18  2 19 16 27 28 29 31
  20990664.247     2986636.598 7   2327249.650 7
  24073796.161    -5093593.169 5  -3882461.746 5
  21238058.583      306331.994 7    238701.169 8
  25023355.685     -925106.820 3   -662876.660 4
  22089759.231    -2721193.339 6  -2120408.393 7
  24059870.958     2276812.169 5   1774140.649 5
  22941510.974     6600039.387 6   5142885.319 6
  22637524.692    -1789483.811 6  -1394397.996 7
 94  2 17 21 38  0.0010000  0  8 18  2 19 16 27 28 29 31
  21001422.083     3043166.731 7   2371299.089 7
  24060889.560    -5161405.818 5  -3935302.710 5
  21239772.653      315330.419 7    245712.930 8
  25015334.442     -967253.688 3   -695718.333 4
  22083125.099    -2756043.799 6  -2147564.584 7
  24069161.474     2325645.779 5   1812192.793 5
  22960768.396     6701232.132 6   5221736.763 6
  22635865.130    -1798174.107 6  -1401169.643 7
 94  2 17 21 38 30.0010000  0  8 18  2 19 16 27 28 29 31
  21012256.536     3100092.841 7   2415657.079 8
  24048017.739    -5229055.228 5  -3988016.485 5
  21241509.083      324459.743 7    252826.680 8
  25007393.896    -1009013.733 3   -728258.553 3
  22076515.661    -2790802.889 6  -2174649.578 7
  24078546.247     2374973.128 5   1850629.665 5
  22980073.896     6802686.650 6   5300792.169 6
  22634305.771    -1806370.553 6  -1407556.453 6
 94  2 17 21 39  0.0010000  0  8 18  2 19 16 27 28 29 31
  21023177.567     3157491.333 7   2460383.150 7
  24035184.450    -5296489.703 5  -4040562.755 5
  21243279.075      333766.603 7    260078.769 8
  24999524.669    -1050334.901 3   -760456.845 3
  22069926.763    -2825421.993 6  -2201625.485 7
  24088035.833     2424841.139 5   1889487.847 5
  22999437.505     6904439.768 6   5380080.249 6
  22632851.028    -1814019.654 6  -1413516.761 6
 94  2 17 21 39 30.0010000  0  8 18  2 19 16 27 28 29 31
  21034189.560     3215363.543 7   2505478.359 7
  24022392.052    -5363715.541 5  -4092946.475 5
  21245085.247      343261.526 7    267477.395 8
  24991746.591    -1091200.628 3   -792300.206 2
  22063365.161    -2859902.320 6  -2228493.256 7
  24097629.013     2475257.275 5   1928773.127 5
  23018854.755     7006486.654 6   5459597.237 6
  22631500.325    -1821115.918 6  -1419046.299 6
 94  2 17 21 40  0.0010000  0  8 18  2 19 16 27 28 29 31
  21045287.411     3273680.814 7   2550920.366 7
  24009630.356    -5430771.780 5  -4145198.030 5
  21246924.825      352922.214 7    275005.201 8
  24984052.153    -1131636.677 3   -823808.767 2
  22056826.997    -2894266.769 7  -2255270.720 7
  24107315.911     2526187.782 5   1968459.196 5
  23038328.028     7108804.473 6   5539325.347 6
  22630251.099    -1827691.950 6  -1424170.452 7
 94  2 17 21 40 30.0010000  0  8 18  2 19 16 27 28 29 31
  21056478.536     3332477.834 7   2596736.208 7
  23996906.919    -5497644.604 5  -4197306.669 5
  21248796.231      362762.027 7    282672.565 8
  24976447.145    -1171619.299 4   -854964.049 1
  22050310.716    -2928497.596 7  -2281944.063 7
  24117112.794     2577635.026 5   2008547.943 5
  23057853.716     7211419.744 6   5619285.240 5
  22629104.950    -1833716.557 6  -1428864.922 6
 94  2 17 21 41  0.0010000  0  8 18  2 19 16 27 28 29 31
  21067754.536     3391749.796 7   2642922.125 7
  23984215.028    -5564340.509 5  -4249277.437 5
  21250698.075      372752.767 7    290457.556 8
  24968920.911    -1211165.229 4   -885779.038 2
  22043821.716    -2962605.648 7  -2308521.749 7
  24126996.364     2629574.639 5   2049020.347 5
  23077433.450     7314318.761 6   5699466.230 5
  22628056.810    -1839210.712 6  -1433146.059 6
 94  2 17 21 41 30.0010000  0  8 18  2 19 16 27 28 29 31
  21079122.481     3451481.858 7   2689466.560 7
  23971561.802    -5630844.177 5  -4301098.441 5
  21252628.294      382897.483 7    298362.513 8
  24961476.950    -1250281.325 4   -916259.098 2
  22037351.739    -2996593.940 7  -2335006.105 7
  24136975.036     2682012.479 5   2089880.972 5
  23097070.185     7417520.934 6   5779883.441 6
  22627111.427    -1844184.851 6  -1437021.980 6
 94  2 17 21 42  0.0010000  0  8 18  2 19 16 27 28 29 31
  21090579.442     3511682.346 7   2736376.012 8
  23958944.802    -5697127.507 5  -4352747.742 5
  21254589.794      393203.376 7    306393.074 8
  24954117.458    -1288971.098 4   -946406.959 1
  22030911.489    -3030456.028 7  -2361392.113 7
  24147045.606     2734951.654 5   2131132.268 5
  23116771.552     7521038.565 6   5860546.468 5
  22626264.560    -1848631.574 6  -1440486.941 6
 94  2 17 21 42 30.0010000  0  8 18  2 19 16 27 28 29 31
  21102129.239     3572383.458 7   2783675.545 8
  23946382.247    -5763145.161 5  -4404190.014 5
  21256587.122      403705.377 7    314576.441 8
  24946839.614    -1327201.812 3   -976197.116 2
  22024496.692    -3064168.206 7  -2387661.319 7
  24157224.106     2788420.688 5   2172796.425 5
  23136534.286     7624905.177 6   5941481.421 6
  22625527.622    -1852508.304 6  -1443507.736 6
 94  2 17 21 43  0.0010000  0  8 18  2 19 16 27 28 29 31
  21113800.075     3633712.261 7   2831464.197 8
  23933896.208    -5828755.927 5  -4455315.217 5
  21258651.731      414551.231 7    323027.744 8
  24939678.560    -1364836.961 3  -1005523.190 2
  22018132.724    -3097594.723 6  -2413707.928 7
  24167528.661     2842558.008 5   2214981.328 5
  23156388.208     7729236.540 6   6022778.522 6
  22624926.239    -1855678.109 6  -1445977.687 7
 94  2 17 21 43 30.0010000  0  8 18  2 19 16 27 28 29 31
  21125517.661     3695277.576 7   2879437.142 8
  23921416.974    -5894333.066 5  -4506414.239 5
  21260711.669      425379.600 7    331465.434 8
  24932562.888    -1402239.703 3  -1034668.162 2
  22011757.075    -3131099.514 6  -2439815.523 7
  24177880.919     2896991.014 5   2257396.627 5
  23176253.200     7833636.983 6   6104129.450 6
  22624389.067    -1858508.656 6  -1448183.269 6
 94  2 17 21 44  0.0010000  0  8 18  2 19 16 27 28 29 31
  21137308.013     3757256.580 7   2927732.437 8
  23908977.466    -5959711.654 5  -4557358.516 5
  21262802.841      436355.240 7    340017.878 8
  24925528.114    -1439219.953 2  -1063483.889 2
  22005401.794    -3164504.166 7  -2465845.094 7
  24188332.966     2951888.334 5   2300173.734 4
  23196165.614     7938263.693 6   6185656.696 5
  22623949.442    -1860804.746 6  -1449972.406 6
 94  2 17 21 44 30.0010000  0  8 18  2 19 16 27 28 29 31
  21149185.138     3819660.623 7   2976358.940 8
  23896575.911    -6024887.877 6  -4608145.135 5
  21264920.653      447495.348 7    348698.484 8
  24918569.005    -1475757.868 2  -1091954.929 2
  21999065.700    -3197796.845 6  -2491787.420 7
  24198861.817     3007259.054 5   2343319.716 4
  23216118.622     8043113.843 6   6267358.045 5
  22623619.794    -1862552.147 6  -1451333.975 6
 94  2 17 21 45  0.0020000  0  8 18  2 19 16 27 28 29 31
  21161141.314     3882506.955 7   3025330.071 8
  23884212.799    -6089861.347 6  -4658773.745 5
  21267074.275      458813.063 7    357517.485 8
  24911707.908    -1511833.798 3  -1120065.980 3
  21992756.955    -3230959.654 7  -2517628.536 7
  24209499.486     3063128.813 5   2386854.583 5
  23236113.674     8148203.444 6   6349245.979 5
  22623394.721    -1863739.462 6  -1452259.103 7
 94  2 17 21 45 30.0020000  0  8 18  2 19 16 27 28 29 31
  21173187.213     3945791.132 7   3074642.394 8
  23871885.104    -6154632.226 6  -4709244.489 5
  21269260.799      470311.755 7    366477.518 8
  24904928.049    -1547440.666 3  -1147811.556 4
  21986469.682    -3263994.092 7  -2543369.629 7
  24220224.525     3119506.883 5   2430785.526 5
  23256162.760     8253555.410 6   6431338.359 6
  22623272.338    -1864364.791 6  -1452746.337 6
 94  2 17 21 46  0.0020000  0  8 18  2 19 16 27 28 29 31
  21185314.432     4009532.961 7   3124311.321 8
  23859600.736    -6219195.543 6  -4759553.525 5
  21271488.916      481999.847 7    375585.123 8
  24898249.002    -1582574.167 3  -1175188.274 4
  21980205.408    -3296902.879 7  -2569012.829 7
  24231059.760     3176416.515 5   2475130.667 5
  23276265.814     8359200.457 6   6513659.098 5
  22623262.689    -1864413.289 6  -1452784.090 6
 94  2 17 21 46 30.0020000  0  8 18  2 19 16 27 28 29 31
  21197526.268     4073699.322 7   3174311.060 8
  23847345.986    -6283590.081 6  -4809731.012 5
  21273741.182      493847.264 7    384816.888 8
  24891641.971    -1617277.456 4  -1202229.759 3
  21973961.416    -3329729.599 7  -2594592.061 7
  24241976.900     3233828.919 5   2519867.579 4
  23296423.307     8465097.855 6   6596176.484 5
  22623350.697    -1863942.851 6  -1452417.463 6
 94  2 17 21 47  0.0020000  0  8 18  2 19 16 27 28 29 31
  21209815.924     4138281.849 7   3224635.086 8
  23835127.502    -6347818.373 6  -4859778.977 5
  21276020.932      505831.395 7    394155.184 8
  24885117.432    -1651552.057 4  -1228937.209 3
  21967729.939    -3362469.968 7  -2620104.013 7
  24253001.486     3291731.119 5   2564986.140 5
  23316616.994     8571243.215 6   6678887.077 6
  22623538.103    -1862963.801 6  -1451654.528 6
 94  2 17 21 47 30.0020000  0  8 18  2 19 16 27 28 29 31
  21222189.447     4203304.848 7   3275302.332 8
  23822938.486    -6411852.215 6  -4909675.420 5
  21278331.463      517968.672 7    403612.810 8
  24878682.775    -1685377.447 5  -1255294.600 2
  21961522.510    -3395094.311 7  -2645525.558 7
  24264109.807     3350120.196 5   2610484.089 5
  23336864.557     8677632.998 6   6761788.129 5
  22623824.221    -1861462.479 6  -1450484.623 6
 94  2 17 21 48  0.0020000  0  8 18  2 19 16 27 28 29 31
  21234651.213     4268789.002 7   3326328.920 8
  23810791.596    -6475684.491 6  -4959414.797 5
  21280668.932      530252.169 7    413184.378 8
  24872332.064    -1718750.036 5  -1281299.187 2
  21955340.510    -3427580.161 7  -2670839.189 7
  24275312.111     3408982.340 5   2656350.677 5
  23357151.908     8784248.505 6   6844865.070 5
  22624210.932    -1859435.426 6  -1448905.073 6
 94  2 17 21 48 30.0020000  0  8 18  2 19 16 27 28 29 31
  21247201.744     4334740.358 7   3377719.571 8
  23798683.557    -6539318.202 6  -5008999.467 5
  21283035.338      542688.490 7    422875.027 8
  24866070.439    -1751667.653 5  -1306949.210 2
  21949186.682    -3459910.151 7  -2696031.366 7
  24286603.580     3468295.000 5   2702568.300 5
  23377486.111     8891094.969 6   6928121.976 6
  22624694.455    -1856887.854 6  -1446919.911 6
 94  2 17 21 49  0.0020000  0  8 18  2 19 16 27 28 29 31
  21259838.182     4401150.921 7   3429468.038 8
  23786608.963    -6602759.565 6  -5058434.249 5
  21285432.752      555285.760 7    432691.100 8
  24859888.119    -1784144.422 5  -1332255.742 4
  21943065.283    -3492085.097 7  -2721102.739 7
  24297969.197     3528040.763 5   2749123.413 5
  23397860.986     8998181.626 6   7011566.037 5
  22625281.268    -1853802.754 6  -1444515.923 6
 94  2 17 21 49 30.0020000  0  8 18  2 19 16 27 28 29 31
  21272562.111     4468009.209 7   3481565.387 8
  23774571.236    -6666027.887 6  -5107734.198 5
  21287861.564      568047.291 7    442635.154 8
  24853787.041    -1816201.241 5  -1357235.024 5
  21936964.689    -3524137.125 7  -2746078.339 7
  24309416.213     3588221.758 5   2796017.641 5
  23418287.955     9105514.177 5   7095201.696 5
  22625970.424    -1850188.820 6  -1441699.858 6
 94  2 17 21 50  0.0020000  0  8 18  2 19 16 27 28 29 31
  21285370.752     4535325.447 7   3534019.574 7
  23762567.947    -6729097.582 6  -5156879.402 5
  21290325.299      580995.963 7    452725.044 8
  24847767.205    -1847823.950 5  -1381876.002 4
  21930889.127    -3556066.170 6  -2770958.090 7
  24320960.822     3648869.053 5   2843275.234 5
  23438764.314     9213137.709 5   7179064.102 5
  22626762.182    -1846025.324 6  -1438455.556 6
 94  2 17 21 50 30.0020000  0  8 18  2 19 16 27 28 29 31
  21298266.947     4603092.023 7   3586824.689 7
  23750610.525    -6791940.456 6  -5205847.837 5
  21292830.580      594159.045 7    462982.003 8
  24841834.924    -1878989.985 4  -1406161.169 3
  21924834.338    -3587873.457 6  -2795742.989 7
  24332595.979     3710001.875 5   2890911.153 5
  23459308.268     9321055.658 5   7263155.914 5
  22627661.119    -1841297.476 6  -1434771.508 6
 94  2 17 21 51  0.0020000  0  8 18  2 19 16 27 28 29 31
  21311243.705     4671281.476 7   3639959.317 7
  23738693.166    -6854563.839 6  -5254645.245 5
  21295371.666      607509.791 7    473385.182 8
  24835988.736    -1909714.912 4  -1430102.567 4
  21918801.010    -3619582.030 7  -2820450.960 8
  24344319.268     3771620.513 5   2938925.629 5
  23479887.783     9429225.265 5   7347443.815 5
  22628667.221    -1836003.773 6  -1430646.553 6
 94  2 17 21 51 30.0020000  0  8 18  2 19 16 27 28 29 31
  21324302.252     4739904.179 7   3693431.524 7
  23726822.588    -6916942.395 6  -5303251.875 5
  21297946.666      621037.316 7    483926.119 8
  24830239.494    -1939969.495 4  -1453677.513 4
  21912788.775    -3651176.656 7  -2845070.130 8
  24356136.963     3833736.334 5   2987327.528 5
  23500517.408     9537643.687 5   7431925.605 5
  22629784.322    -1830133.702 6  -1426072.454 6
 94  2 17 21 52  0.0020000  0  8 18  2 19 16 27 28 29 31
  21337442.658     4808961.177 7   3747242.161 7
  23715000.096    -6979064.978 6  -5351659.052 5
  21300551.252      634730.663 7    494596.253 8
  24824567.885    -1969749.622 3  -1476882.699 4
  21906802.299    -3682638.540 7  -2869585.861 8
  24368051.635     3896340.894 5   3036110.252 5
  23521191.088     9646284.187 5   7516580.450 5
  22631014.400    -1823679.261 6  -1421043.016 6
 94  2 17 21 52 30.0020000  0  8 18  2 19 16 27 28 29 31
  21350663.150     4878439.210 7   3801380.865 7
  23703220.893    -7040959.097 5  -5399888.228 5
  21303184.768      648564.957 7    505376.225 8
  24818981.752    -1999072.703 3  -1499731.749 3
  21900839.494    -3713979.722 7  -2894007.539 8
  24380060.752     3959430.656 5   3085271.082 5
  23541901.525     9755117.255 5   7601385.347 5
  22632352.111    -1816635.871 6  -1415554.657 6
 94  2 17 21 53  0.0020000  0  8 18  2 19 16 27 28 29 31
  21363962.478     4948329.075 7   3855840.485 7
  23691479.377    -7102650.324 6  -5447959.287 5
  21305837.924      662515.448 7    516246.741 8
  24813493.650    -2027958.471 4  -1522240.057 4
  21894893.799    -3745222.506 7  -2918352.536 8
  24392157.025     4022993.392 5   3134800.446 5
  23562650.861     9864155.501 5   7686350.122 5
  22633806.846    -1809013.528 6  -1409615.161 6
 94  2 17 21 53 30.0020000  0  8 18  2 19 16 27 28 29 31
  21377335.158     5018598.358 7   3910595.756 7
  23679775.244    -7164172.751 6  -5495898.820 5
  21308511.721      676554.557 7    527186.310 8
  24808072.705    -2056436.962 5  -1544430.994 4
  21888960.103    -3776407.958 7  -2942652.860 8
  24404329.721     4086985.550 5   3184664.405 5
  23583436.346     9973382.845 5   7771462.241 5
  22635348.869    -1800877.541 6  -1403275.420 6
 94  2 17 21 54  0.0020000  0  8 18  2 19 16 27 28 29 31
  21390785.127     5089278.602 7   3965671.252 7
  23668107.760    -7225493.107 6  -5543680.887 6
  21311209.830      690749.957 7    538247.669 8
  24802739.744    -2084464.376 5  -1566270.466 4
  21883043.525    -3807498.073 7  -2966878.893 8
  24416601.721     4151455.776 5   3234900.886 5
  23604270.604    10082848.058 6   7856759.698 5
  22637005.650    -1792195.647 6  -1396510.290 6
 94  2 17 21 54 30.0020000  0  8 18  2 19 16 27 28 29 31
  21404311.744     5160357.027 7   4021057.010 7
  23656471.354    -7286621.874 6  -5591313.681 6
  21313944.916      705111.402 7    549438.410 8
  24797494.408    -2112030.802 4  -1587750.750 4
  21877143.580    -3838498.536 6  -2991035.066 7
  24428961.252     4216395.799 5   3285503.444 5
  23625148.197    10192562.981 6   7942251.742 5
  22638755.408    -1782981.765 6  -1389330.630 6
 94  2 17 21 55  0.0020000  0  8 18  2 19 16 27 28 29 31
  21417911.533     5231824.318 7   4076745.786 7
  23644878.900    -7347555.707 6  -5638794.550 6
  21316710.486      719646.126 7    560764.164 8
  24792334.799    -2139129.305 5  -1608866.419 3
  21871264.307    -3869401.231 7  -3015115.064 8
  24441400.424     4281777.930 5   3336450.517 5
  23646074.768    10302526.219 6   8027937.276 5
  22640603.650    -1773274.300 6  -1381766.337 6
 94  2 17 21 55 30.0020000  0  8 18  2 19 16 27 28 29 31
  21431588.033     5303703.073 7   4132755.181 7
  23633324.494    -7408276.425 6  -5686109.364 6
  21319512.838      734370.655 7    572237.829 8
  24787267.158    -2165749.889 3  -1629609.683 2
  21865409.135    -3900167.242 7  -3039088.538 7
  24453930.697     4347619.129 5   3387755.295 5
  23667046.682    10412736.184 6   8113815.080 5
  22642546.838    -1763061.838 6  -1373808.543 6
 94  2 17 21 56  0.0020000  0  8 18  2 19 16 27 28 29 31
  21445342.119     5375975.552 7   4189071.374 7
  23621807.978    -7468802.815 6  -5733272.747 6
  21322343.986      749256.344 7    583837.067 8
  24782289.103    -2191909.036 3  -1649993.379 2
  21859579.893    -3930798.061 7  -3062956.691 8
  24466544.502     4413905.072 5   3439406.643 5
  23688059.971    10523163.851 6   8199862.477 5
  22644589.213    -1752329.439 6  -1365445.611 6
 94  2 17 21 56 30.0020000  0  8 18  2 19 16 27 28 29 31
  21459178.072     5448684.250 7   4245727.481 7
  23610327.885    -7529114.117 6  -5780268.519 6
  21325207.213      764295.919 7    595556.215 8
  24777401.666    -2217591.038 3  -1670005.270 2
  21853780.900    -3961268.266 7  -3086699.662 8
  24479242.955     4480648.528 5   3491414.495 5
  23709114.846    10633811.193 6   8286081.080 5
  22646737.502    -1741052.591 6  -1356658.435 6
 94  2 17 21 57  0.0020000  0  8 18  2 19 16 27 28 29 31
  21473100.541     5521846.074 7   4302736.664 7
  23598894.853    -7589199.757 6  -5827088.442 6
  21328094.768      779480.770 7    607388.569 8
  24772600.119    -2242812.247 3  -1689658.142 2
  21848016.205    -3991571.120 7  -3110312.260 8
  24492030.353     4547853.903 5   3543782.284 5
  23730209.775    10744668.920 6   8372463.630 5
  22648992.939    -1729205.648 6  -1347427.039 6
 94  2 17 21 57 30.0020000  0  8 18  2 19 16 27 28 29 31
  21487112.447     5595477.291 7   4360111.616 7
  23587506.729    -7649049.710 6  -5873724.724 6
  21331014.354      794814.430 7    619336.876 8
  24767895.682    -2267560.843 3  -1708942.700 2
  21842280.643    -4021699.905 7  -3133789.204 8
  24504910.619     4615538.343 5   3596523.353 5
  23751351.244    10855741.771 6   8459013.799 5
  22651363.744    -1716735.932 6  -1337710.366 6
 94  2 17 21 58  0.0020000  0  8 18  2 19 16 27 28 29 31
  21501215.260     5669580.740 7   4417854.540 7
  23576164.385    -7708651.666 6  -5920167.743 6
  21333965.689      810323.286 7    631421.692 8
  24763277.018    -2291811.671 3  -1727839.448 2
  21836579.814    -4051656.992 7  -3157132.359 8
  24517884.424     4683703.256 5   3649638.814 5
  23772522.729    10967039.834 5   8545739.456 5
  22653857.744    -1703625.694 6  -1327494.585 7
 94  2 17 21 58 30.0020000  0  8 18  2 19 16 27 28 29 31
  21515383.682     5744060.333 7   4475890.554 7
  23564854.369    -7768090.316 6  -5966483.508 6
  21336936.885      825931.156 7    643583.665 8
  24758735.478    -2315667.736 3  -1746428.566 2
  21830892.643    -4081550.988 7  -3180426.354 8
  24530929.846     4752244.024 5   3703047.159 4
  23793732.018    11078475.301 6   8632572.176 5
  22656454.189    -1689984.931 6  -1316865.417 7
 94  2 17 21 59  0.0020000  0  8 18  2 19 16 27 28 29 31
  21529639.471     5818968.410 7   4534260.458 7
  23553586.361    -7827287.986 6  -6012611.501 6
  21339943.416      841731.497 7    655895.608 8
  24754295.721    -2339054.449 4  -1764651.970 2
  21825229.728    -4111309.936 7  -3203615.120 8
  24544053.471     4821233.365 5   3756805.051 5
  23814979.143    11190142.601 5   8719585.564 5
  22659161.189    -1675738.769 6  -1305764.513 6
 94  2 17 21 59 30.0020000  0  8 18  2 19 16 27 28 29 31
  21543979.502     5894321.204 7   4592976.895 8
  23542372.869    -7886225.614 6  -6058536.844 6
  21342993.635      857764.662 7    668388.988 8
  24749938.385    -2361918.878 5  -1782468.373 2
  21819596.900    -4140912.920 7  -3226682.358 8
  24557276.416     4890691.958 5   3810928.593 5
  23836281.697    11302067.606 5   8806799.754 5
  22661989.182    -1660892.925 6  -1294196.322 6
 94  2 17 22  0  0.0020000  0  8 18  2 19 16 27 28 29 31
  21558408.705     5970146.809 7   4652061.761 8
  23531211.439    -7944875.573 6  -6104238.040 6
  21346095.721      874066.251 7    681091.527 8
  24745692.830    -2384235.621 5  -1799858.058 2
  21813998.971    -4170328.023 7  -3249603.205 8
  24570579.861     4960641.152 5   3865434.401 4
  23857629.666    11414277.124 5   8894235.635 5
  22664931.104    -1645453.648 6  -1282165.719 6
 94  2 17 22  0 30.0020000  0  8 18  2 19 16 27 28 29 31
  21572911.979     6046363.482 7   4711451.349 8
  23520087.010    -8003333.341 6  -6149789.489 6
  21349226.416      890524.413 7    693916.059 8
  24741529.838    -2406097.940 5  -1816893.632 2
  21808421.533    -4199644.038 7  -3272446.828 9
  24583970.166     5030990.877 5   3920252.347 4
  23879020.307    11526684.820 5   8981825.943 5
  22667961.799    -1629513.535 6  -1269744.859 6
 94  2 17 22  1  0.0020000  0  8 18  2 19 16 27 28 29 31
  21587492.174     6122974.852 7   4771148.496 8
  23508997.338    -8061608.653 6  -6195198.757 6
  21352387.947      907136.660 7    706860.652 8
  24737462.338    -2427493.910 4  -1833565.791 2
  21802863.596    -4228856.085 7  -3295209.446 8
  24597432.205     5101744.126 5   3975384.707 5
  23900448.604    11639291.897 5   9069571.616 5
  22671092.010    -1613070.358 6  -1256932.004 6
 94  2 17 22  1 30.0020000  0  8 18  2 19 16 27 28 29 31
  21602149.729     6200017.460 7   4831181.660 8
  23497950.744    -8119664.471 6  -6240436.987 6
  21355583.924      923933.473 7    719949.075 8
  24733487.611    -2448386.320 4  -1849845.618 2
  21797329.166    -4257929.740 7  -3317864.220 8
  24610986.057     5172946.378 5   4030866.942 5
  23921922.768    11752130.514 5   9157497.721 5
  22674322.807    -1596096.992 6  -1243706.008 6
 94  2 17 22  2  0.0020000  0  8 18  2 19 16 27 28 29 31
  21616890.854     6277468.584 7   4891533.165 8
  23486943.432    -8177512.080 6  -6285512.996 6
  21358806.924      940874.507 7    733149.877 8
  24729592.197    -2468820.883 3  -1865768.672 2
  21791818.127    -4286886.144 7  -3340427.632 8
  24624614.197     5244583.575 5   4086688.092 4
  23943437.221    11865185.494 5   9245592.394 5
  22677654.369    -1578585.447 6  -1230060.655 6
 94  2 17 22  2 30.0020000  0  8 18  2 19 16 27 28 29 31
  21631708.463     6355334.066 7   4952207.536 8
  23475976.369    -8235132.290 6  -6330411.803 6
  21362058.947      957962.710 7    746465.352 8
  24725797.955    -2488787.190 4  -1881326.838 2
  21786332.518    -4315718.360 7  -3362894.286 8
  24638333.439     5316676.952 5   4142864.708 4
  23964995.580    11978472.405 5   9333867.811 5
  22681094.299    -1560501.414 6  -1215969.210 6
 94  2 17 22  3  0.0020000  0  8 18  2 19 16 27 28 29 31
  21646596.111     6433572.586 7   5013172.598 8
  23465050.525    -8292556.078 6  -6375157.559 6
  21365336.713      975177.278 7    759879.306 8
  24722081.541    -2508312.171 5  -1896541.126 2
  21780861.588    -4344458.466 7  -3385289.141 8
  24652138.791     5389205.445 5   4199380.381 5
  23986581.455    12091938.828 5   9422283.101 5
  22684637.494    -1541885.094 6  -1201462.975 6
 94  2 17 22  3 30.0020000  0  8 18  2 19 16 27 28 29 31
  21661542.619     6512125.372 7   5074382.530 8
  23454151.057    -8349829.481 6  -6419786.134 6
  21368624.010      992459.016 7    773345.599 8
  24718438.049    -2527450.177 4  -1911453.851 3
  21775406.986    -4373140.390 7  -3407638.672 8
  24666014.619     5462114.366 5   4256192.469 4
  24008199.768    12205516.525 5   9510785.092 5
  22688275.713    -1522772.587 6  -1186570.121 7
 94  2 17 22  4  0.0020000  0  8 18  2 19 16 27 28 29 31
  21676560.971     6591053.267 7   5135884.755 8
  23443288.854    -8406902.409 6  -6464258.491 6
  21371934.908     1009853.490 7    786899.733 8
  24714877.057    -2546158.898 4  -1926032.125 3
  21769969.486    -4401708.671 7  -3429899.647 8
  24679961.541     5535428.577 5   4313320.371 3
  24029840.377    12319232.874 5   9599395.109 4
  22692017.361    -1503102.819 6  -1171243.032 7
 94  2 17 22  4 30.0020000  0  8 18  2 19 16 27 28 29 31
  21691663.104     6670408.224 7   5197719.757 8
  23432475.518    -8463733.164 6  -6508542.151 6
  21375278.510     1027425.505 7    800592.218 8
  24711413.408    -2564371.496 4  -1940223.744 2
  21764563.791    -4430116.868 7  -3452035.889 8
  24693999.939     5609196.863 5   4370802.084 4
  24051512.885    12433118.162 5   9688136.775 5
  22695873.135    -1482849.247 6  -1155461.030 7
 94  2 17 22  5  0.0020000  0  8 18  2 19 16 27 28 29 31
  21706856.064     6750242.089 7   5259927.940 8
  23421716.603    -8520274.323 6  -6552600.137 6
  21378666.580     1045232.877 7    814468.104 8
  24708052.127    -2582030.582 4  -1953984.104 3
  21759196.260    -4458312.468 7  -3474006.456 8
  24708133.838     5683458.357 5   4428668.149 4
  24073220.463    12547211.928 5   9777040.893 5
  22699848.354    -1461970.659 6  -1139192.008 7
 94  2 17 22  5 30.0020000  0  8 18  2 19 16 27 28 29 31
  21722130.971     6830510.655 7   5322474.844 8
  23411005.393    -8576556.115 6  -6596456.045 6
  21382093.932     1063233.291 7    828494.402 8
  24704789.518    -2599185.052 5  -1967351.239 3
  21753864.424    -4486335.144 7  -3495842.282 8
  24722343.252     5758156.252 5   4486874.244 4
  24094964.697    12661487.141 5   9866086.383 5
  22703927.557    -1440499.375 6  -1122461.153 7
 94  2 17 22  6  0.0020000  0  8 18  2 19 16 27 28 29 31
  21737492.541     6911223.538 7   5385367.979 8
  23400350.033    -8632561.989 6  -6640096.940 6
  21385556.158     1081437.436 7    842679.465 8
  24701622.166    -2615817.133 4  -1980311.341 4
  21748559.619    -4514205.222 7  -3517559.187 8
  24736648.143     5833308.654 5   4545434.509 3
  24116755.861    12775965.081 5   9955289.844 4
  22708129.127    -1418439.965 6  -1105272.015 7
 94  2 17 22  6 30.0020000  0  8 18  2 19 16 27 28 29 31
  21752927.924     6992345.373 7   5448579.763 8
  23389743.502    -8688309.772 6  -6683536.732 6
  21389060.572     1099843.091 7    857021.550 8
  24698557.369    -2631923.199 4  -1992861.530 2
  21743283.393    -4541939.449 7  -3539170.243 8
  24751034.682     5908919.241 5   4604351.817 4
  24138576.947    12890659.324 5  10044661.863 4
  22712433.143    -1395799.686 6  -1087630.249 7
 94  2 17 22  7  0.0020000  0  8 18  2 19 16 27 28 29 31
  21768439.135     7073857.335 7   5512095.551 7
  23379182.229    -8743793.708 6  -6726770.923 6
  21392601.572     1118448.163 7    871519.029 8
  24695590.736    -2647512.414 3  -2005008.978 1
  21738030.924    -4569531.759 7  -3560670.710 8
  24765510.236     5984972.328 5   4663613.915 3
  24160450.627    13005590.748 5  10134218.690 5
  22716854.393    -1372562.833 6  -1069523.623 7
 94  2 17 22  7 30.0020000  0  8 18  2 19 16 27 28 29 31
  21784031.900     7155795.833 7   5575943.704 7
  23368684.400    -8798964.973 6  -6769761.464 6
  21396184.283     1137292.821 7    886203.191 8
  24692734.869    -2662538.715 4  -2016717.804 2
  21732817.814    -4596933.784 7  -3582022.913 8
  24780070.486     6061511.229 4   4723254.564 4
  24182379.525    13120817.165 5  10224005.371 5
  22721403.947    -1348680.915 6  -1050914.343 7
 94  2 17 22  8  0.0020000  0  8 18  2 19 16 27 28 29 31
  21799725.869     7238277.666 7   5640215.225 7
  23358266.072    -8853726.593 6  -6812432.815 6
  21399840.018     1156490.497 7    901162.430 8
  24689998.197    -2676887.707 4  -2027898.824 2
  21727659.893    -4624031.924 7  -3603138.313 8
  24794753.760     6138647.526 4   4783360.706 4
  24204380.893    13236445.730 5  10314105.433 4
  22726088.338    -1324046.902 6  -1031719.024 7
 94  2 17 22  8 30.0020000  0  8 18  2 19 16 27 28 29 31
  21815632.103     7321865.984 7   5705348.945 7
  23348024.588    -8907532.614 6  -6854359.537 6
  21403667.439     1176614.713 7    916843.658 8
  24687504.978    -2690008.501 4  -2038122.800 3
  21722674.705    -4650236.740 7  -3623557.628 8
  24809644.736     6216934.006 4   4844363.094 3
  24226565.291    13353023.051 5  10404944.760 5
  22731030.213    -1298100.582 6  -1011501.116 6
 94  2 17 22  9  0.0020000  0  8 18  2 19 16 27 28 29 31
  21831672.635     7406152.087 7   5771026.395 7
  23337887.994    -8960799.430 6  -6895866.102 6
  21407591.213     1197232.668 7    932909.625 8
  24685156.236    -2702341.703 4  -2047733.087 2
  21717776.682    -4675970.492 7  -3643609.879 8
  24824684.127     6295937.143 5   4905923.975 4
  24248845.752    13470092.521 5  10496167.596 5
  22736129.377    -1271286.111 6   -990606.730 7
 94  2 17 22  9 30.0020000  0  8 18  2 19 16 27 28 29 31
  21847788.900     7490842.076 7   5837018.557 7
  23327794.057    -9013841.879 6  -6937197.840 6
  21411552.314     1218035.062 7    949119.306 8
  24682902.939    -2714202.185 5  -2056975.009 4
  21712911.432    -4701549.769 7  -3663541.748 8
  24839796.252     6375356.684 5   4967809.280 4
  24271152.174    13587319.614 5  10587513.249 5
  22741334.564    -1243925.253 6   -969286.579 7
 94  2 17 22 10  0.0020000  0  8 18  2 19 16 27 28 29 31
  21863987.572     7575967.767 7   5903350.237 7
  23317745.658    -9066642.109 6  -6978340.830 6
  21415549.307     1239056.399 7    965499.583 8
  24680737.213    -2725568.408 5  -2065831.787 3
  21708078.650    -4726942.152 7  -3683328.007 8
  24854992.611     6455222.794 5   5030042.554 4
  24293488.721    13704712.241 5  10678987.892 4
  22746655.666    -1215991.702 6   -947520.167 7
 94  2 17 22 10 30.0020000  0  8 18  2 19 16 27 28 29 31
  21880275.080     7661570.158 7   5970053.372 7
  23307757.377    -9119129.394 6  -7019239.975 6
  21419601.978     1260345.060 7    982088.157 8
  24678681.963    -2736388.786 5  -2074263.217 2
  21703293.111    -4752096.798 7  -3702929.008 8
  24870290.182     6535591.445 5   5092667.448 4
  24315869.025    13822311.926 5  10770623.876 5
  22752084.986    -1187424.785 6   -925260.234 7
 94  2 17 22 11  0.0020000  0  8 18  2 19 16 27 28 29 31
  21896592.471     7747304.798 7   6036859.559 7
  23297768.072    -9171632.037 6  -7060151.094 6
  21423637.689     1281547.363 7    998609.442 8
  24676661.275    -2746992.215 5  -2082525.614 3
  21698481.182    -4777369.662 7  -3722622.134 8
  24885608.885     6616112.586 5   5155411.148 4
  24338221.635    13939787.852 5  10862163.428 5
  22757580.354    -1158552.288 6   -902762.183 6
 94  2 17 22 11 30.0020000  0  8 18  2 19 16 27 28 29 31
  21913030.143     7833696.197 7   6104177.497 7
  23287872.400    -9223625.214 6  -7100665.222 6
  21427756.104     1303195.782 7   1015478.348 8
  24674792.424    -2756825.895 5  -2090188.193 2
  21693752.236    -4802228.845 7  -3741992.908 8
  24901063.979     6697305.877 5   5218678.622 4
  24360659.416    14057684.586 5  10954030.869 4
  22763241.518    -1128827.117 6   -879599.707 6
 94  2 17 22 12  0.0020000  0  8 18  2 19 16 27 28 29 31
  21929486.752     7920176.480 7   6171564.701 7
  23277969.713    -9275670.546 6  -7141219.989 6
  21431853.994     1324719.779 7   1032250.310 8
  24672961.447    -2766447.880 5  -2097685.840 2
  21688990.002    -4827238.572 7  -3761480.995 8
  24916530.510     6778595.614 5   5282021.254 3
  24383067.869    14175443.971 5  11045791.288 4
  22768947.939    -1098809.088 6   -856209.036 7
 94  2 17 22 12 30.0020000  0  8 18  2 19 16 27 28 29 31
  21945915.893     8006507.707 7   6238835.752 7
  23268007.682    -9328016.615 6  -7182009.091 6
  21435874.838     1345866.229 7   1048728.069 8
  24671125.861    -2776094.909 5  -2105202.993 3
  21684156.580    -4852654.850 7  -3781285.859 8
  24931971.385     6859733.979 5   5345245.917 4
  24405404.682    14292834.515 5  11137264.321 3
  22774674.361    -1068738.290 6   -832777.244 7
 94  2 17 22 13  0.0020000  0  8 18  2 19 16 27 28 29 31
  21962535.072     8093845.205 7   6306890.916 7
  23258203.846    -9379540.546 6  -7222157.574 6
  21440045.471     1367776.120 7   1065800.726 8
  24669501.721    -2784619.524 5  -2111845.525 3
  21679458.705    -4877335.765 7  -3800517.725 8
  24947596.299     6941852.747 5   5409234.547 5
  24427892.588    14411013.707 5  11229351.846 4
  22780620.729    -1037487.422 6   -808425.916 7
 94  2 17 22 13 30.0020000  0  8 18  2 19 16 27 28 29 31
  21979174.768     8181279.764 7   6375021.721 7
  23248379.150    -9431165.971 6  -7262385.147 6
  21444187.807     1389530.591 7   1082752.260 8
  24667912.643    -2792960.876 5  -2118345.243 3
  21674726.424    -4902204.457 7  -3819895.903 8
  24963235.494     7024048.080 5   5473282.824 4
  24450359.455    14529058.353 5  11321334.553 4
  22786612.924    -1005985.567 6   -783879.025 7
 94  2 17 22 14  0.0020000  0  8 18  2 19 16 27 28 29 31
  21995854.838     8268939.669 7   6443328.109 7
  23238559.619    -9482765.433 6  -7302592.481 6
  21448319.463     1411258.231 7   1099682.886 8
  24666382.463    -2801004.426 5  -2124612.923 4
  21669985.283    -4927126.688 7  -3839315.803 8
  24978922.447     7106469.813 5   5537507.531 4
  24472821.893    14647098.361 5  11413313.648 2
  22792684.150     -974102.786 6   -759035.313 7
 94  2 17 22 14 30.0020000  0  8 18  2 19 16 27 28 29 31
  22012644.049     8357171.954 7   6512080.509 7
  23228816.518    -9533970.272 6  -7342492.320 6
  21452516.150     1433314.915 7   1116869.896 8
  24664975.322    -2808392.552 5  -2130369.868 5
  21665302.260    -4951727.749 7  -3858485.447 8
  24994719.408     7189476.003 5   5602187.630 4
  24495349.791    14765485.848 5  11505563.488 1
  22798890.580     -941485.308 6   -733619.113 7
 94  2 17 22 15  0.0020000  0  8 18  2 19 16 27 28 29 31
  22029472.275     8445606.315 7   6580990.372 7
  23219085.979    -9585109.873 6  -7382341.318 6
  21456711.846     1455357.216 7   1134045.721 8
  24663627.979    -2815487.289 5  -2135898.197 4
  21660613.166    -4976354.372 7  -3877675.010 8
  25010554.033     7272704.341 5   5667040.828 4
  24517874.947    14883858.533 5  11597801.815 2
  22805168.127     -908489.900 6   -707908.422 7
 94  2 17 22 15 30.0020000  0  8 18  2 19 16 27 28 29 31
  22046560.361     8535387.093 7   6650949.393 7
  23209588.064    -9635002.206 6  -7421218.422 6
  21461126.377     1478555.272 7   1152122.127 8
  24662556.783    -2821129.134 5  -2140294.408 5
  21656149.533    -4999836.191 7  -3895972.499 8
  25026657.330     7357319.919 5   5732974.960 4
  24540612.885    15003365.565 5  11690924.021 2
  22811738.971     -873950.215 6   -680994.392 7
 94  2 17 22 16  0.0020000  0  8 18  2 19 16 27 28 29 31
  22063696.611     8625454.797 7   6721131.996 7
  23200137.533    -9684676.971 6  -7459925.982 6
  21465564.049     1501882.152 7   1170298.906 8
  24661561.650    -2826336.580 5  -2144352.114 5
  21651703.119    -5023193.560 7  -3914173.022 8
  25042821.564     7442267.552 5   5799167.887 4
  24563376.104    15122965.564 5  11784118.697 2
  22818409.924     -838908.531 6   -653689.199 7
 94  2 17 22 16 30.0020000  0  8 18  2 19 16 27 28 29 31
  22080883.283     8715759.781 7   6791499.488 7
  23190717.158    -9734180.018 6  -7498499.743 6
  21470017.635     1525288.576 7   1188537.680 8
  24660639.572    -2831156.721 5  -2148108.035 4
  21647269.783    -5046492.365 7  -3932327.910 8
  25059040.799     7527476.467 5   5865564.405 4
  24586147.643    15242609.884 5  11877347.892 2
  22825161.463     -803427.512 6   -626041.668 7
 94  2 17 22 17  0.0020000  0  8 18  2 19 16 27 28 29 31
  22098120.807     8806331.558 7   6862074.871 7
  23181328.979    -9783504.396 6  -7536934.282 6
  21474493.494     1548805.283 7   1206862.384 8
  24659807.150    -2835565.058 5  -2151543.073 4
  21642847.135    -5069732.433 7  -3950437.023 8
  25075309.557     7612979.240 5   5932189.896 3
  24608928.814    15362331.956 5  11970637.678 2
  22832004.072     -767481.470 6   -598031.775 7
 94  2 17 22 17 30.0020000  0  8 18  2 19 16 27 28 29 31
  22115296.166     8896598.027 7   6932412.346 7
  23171864.682    -9833245.440 6  -7575693.491 6
  21478879.580     1571851.435 7   1224820.423 8
  24658934.377    -2840142.627 5  -2155109.969 4
  21638325.314    -5093493.995 7  -3968952.508 8
  25091524.221     7698199.067 5   5998594.915 2
  24631608.596    15481546.799 4  12063532.190 1
  22838818.518     -731647.014 6   -570108.843 7
 94  2 17 22 18  0.0020000  0  8 18  2 19 16 27 28 29 31
  22132479.861     8986915.212 7   7002789.352 7
  23162387.143    -9883065.079 6  -7614513.939 6
  21483237.971     1594761.485 7   1242672.404 8
  24658096.486    -2844545.756 5  -2158540.949 5
  21633769.072    -5117433.103 7  -3987606.332 8
  25107754.580     7783482.221 5   6065049.280 3
  24654270.916    15600603.489 5  12156303.497 1
  22845687.885     -695571.968 6   -541998.415 7
 94  2 17 22 18 30.0020000  0  8 18  2 19 16 27 28 29 31
  22149725.533     9077539.003 7   7073405.257 7
  23152939.783    -9932718.219 6  -7653204.653 6
  21487618.713     1617768.385 7   1260599.852 8
  24657342.385    -2848534.823 5  -2161649.296 4
  21629227.307    -5141304.995 7  -4006207.786 8
  25124042.830     7869080.109 5   6131748.922 3
  24676934.650    15719743.447 4  12249139.671 2
  22852643.525     -659001.707 6   -513502.119 7
 94  2 17 22 19  0.0020000  0  8 18  2 19 16 27 28 29 31
  22167007.666     9168346.100 7   7144164.008 7
  23143498.471    -9982312.322 6  -7691849.365 6
  21491996.518     1640777.290 7   1278528.872 8
  24656636.760    -2852219.560 5  -2164520.476 4
  21624681.244    -5165195.575 7  -4024823.789 8
  25140372.689     7954881.853 5   6198607.394 3
  24699604.432    15838839.240 5  12341941.436 3
  22859679.744     -622040.314 6   -484701.032 7
 94  2 17 22 19 30.0020000  0  8 18  2 19 16 27 28 29 31
  22184352.861     9259497.323 7   7215190.907 7
  23134107.018   -10031667.914 6  -7730308.225 6
  21496405.541     1663958.058 7   1296591.790 8
  24656022.455    -2855428.044 4  -2167020.603 3
  21620166.924    -5188918.421 7  -4043309.114 8
  25156762.041     8041036.023 5   6265740.464 3
  24722287.182    15958042.340 5  12434826.783 2
  22866822.814     -584514.374 6   -455460.051 7
 94  2 17 22 20  0.0020000  0  8 18  2 19 16 27 28 29 31
  22201753.799     9350942.579 7   7286446.918 7
  23124751.697   -10080834.234 6  -7768619.597 6
  21500843.330     1687266.650 7   1314754.343 8
  24655500.627    -2858197.544 5  -2169178.609 4
  21615676.791    -5212514.966 7  -4061696.016 8
  25173216.611     8127491.476 5   6333108.311 2
  24744981.893    16077307.855 5  12527760.803 2
  22874055.822     -546477.434 6   -425820.885 7
 94  2 17 22 20 30.0020000  0  8 18  2 19 16 27 28 29 31
  22219214.041     9442695.864 7   7357942.957 7
  23115434.518   -10129791.124 6  -7806767.777 6
  21505311.572     1710745.599 7   1333049.620 8
  24655061.752    -2860503.222 5  -2170975.245 5
  21611216.018    -5235959.932 7  -4079964.804 8
  25189726.213     8214266.085 5   6400724.854 2
  24767690.361    16196645.446 5  12620750.922 2
  22881396.385     -507905.635 6   -395764.944 7
 94  2 17 22 21  0.0020000  0  8 18  2 19 16 27 28 29 31
  22236755.861     9534885.533 7   7429779.018 7
  23106179.627   -10178423.731 6  -7844663.262 6
  21509837.369     1734530.787 7   1351583.531 8
  24654732.916    -2862220.700 5  -2172313.522 4
  21606803.518    -5259143.348 7  -4098029.784 8
  25206326.330     8301476.691 5   6468681.125 2
  24790438.533    16316172.868 5  12713889.038 3
  22888859.924     -468677.794 6   -365197.805 7
 94  2 17 22 21 30.0020000  0  8 18  2 19 16 27 28 29 31
  22254378.502     9627484.027 7   7501933.658 7
  23096978.150   -10226770.891 6  -7882336.318 6
  21514406.353     1758552.158 7   1370301.476 8
  24654509.533    -2863395.314 5  -2173228.790 4
  21602432.447    -5282118.087 7  -4115932.166 8
  25222995.541     8389087.517 5   6536949.254 2
  24813212.377    16435859.768 4  12807151.392 3
  22896441.221     -428846.344 6   -334160.317 7
 94  2 17 22 22  0.0020000  0  8 18  2 19 16 27 28 29 31
  22272075.814     9720486.968 7   7574403.450 7
  23087831.143   -10274840.331 6  -7919792.965 6
  21519021.627     1782792.541 7   1389190.088 8
  24654388.291    -2864033.816 5  -2173726.321 4
  21598096.658    -5304894.536 7  -4133680.041 8
  25239748.783     8477107.292 5   6605536.080 2
  24836018.557    16555702.329 4  12900535.013 3
  22904133.033     -388429.065 6   -302666.340 7
 94  2 17 22 22 30.0020000  0  8 18  2 19 16 27 28 29 31
  22289843.877     9813862.241 7   7647163.357 7
  23078737.119   -10322648.384 6  -7957045.933 6
  21523665.760     1807209.235 7   1408216.096 8
  24654367.166    -2864159.323 5  -2173824.119 3
  21593794.283    -5327511.994 7  -4151304.019 8
  25256569.807     8565512.796 4   6674423.442 3
  24858840.768    16675665.417 4  12994012.576 2
  22911931.314     -347453.620 6   -270737.422 7
 94  2 17 22 23  0.0020000  0  8 18  2 19 16 27 28 29 31
  22307678.846     9907587.641 7   7720196.105 7
  23069682.354   -10370217.639 6  -7994112.831 6
  21528337.783     1831761.407 7   1427347.665 8
  24654437.291    -2863788.306 5  -2173534.958 5
  21589513.604    -5350000.415 7  -4168827.448 8
  25273459.494     8654274.035 4   6743588.009 3
  24881695.947    16795737.403 4  13087574.970 2
  22919832.322     -305948.511 6   -238395.791 7
 94  2 17 22 23 30.0020000  0  8 18  2 19 16 27 28 29 31
  22325576.057    10001637.206 6   7793481.438 7
  23060673.658   -10417555.630 6  -8030999.513 6
  21533033.432     1856433.705 7   1446572.834 8
  24654595.502    -2862928.533 4  -2172864.995 5
  21585259.791    -5372367.127 7  -4186256.041 9
  25290412.354     8743378.736 4   6813020.195 3
  24904566.893    16915914.675 4  13181219.437 3
  22927824.143     -263929.749 6   -205653.895 7
 94  2 17 22 24  0.0020000  0  8 18  2 19 16 27 28 29 31
  22343528.369    10095975.368 6   7866991.656 7
  23051702.471   -10464700.522 6  -8067735.733 7
  21537749.338     1881219.248 7   1465886.253 8
  24654850.338    -2861597.702 4  -2171827.959 5
  21581020.049    -5394635.042 7  -4203607.647 8
  25307430.346     8832798.662 4   6882698.000 3
  24927449.900    17036165.821 4  13274921.470 2
  22935915.354     -221407.257 6   -172519.492 6
 94  2 17 22 24 30.0020000  0  8 18  2 19 16 27 28 29 31
  22361538.127    10190615.831 6   7940737.423 7
  23042767.564   -10511655.425 6  -8104323.901 6
  21542492.752     1906135.268 7   1485301.334 8
  24655194.221    -2859810.187 4  -2170435.067 5
  21576804.541    -5416796.027 7  -4220875.931 9
  25324502.025     8922517.840 4   6952609.030 2
  24950348.963    17156508.340 3  13368694.660 2
  22944105.830     -178363.923 6   -138979.223 6
 94  2 17 22 25  0.0020000  0  8 18  2 19 16 27 28 29 31
  22379630.205    10285695.155 6   8014825.165 7
  23033893.736   -10558288.284 6  -8140661.130 6
  21547289.783     1931342.886 7   1504943.650 8
  24655641.643    -2857444.407 4  -2168591.601 5
  21572633.846    -5438699.522 7  -4237943.573 9
  25341658.689     9012666.718 4   7022854.872 2
  24973289.666    17277093.690 3  13462657.102 1
  22952421.768     -134659.053 6   -104923.480 6
 94  2 17 22 25 30.0020000  0  8 18  2 19 16 27 28 29 31
  22397796.635    10381151.509 6   8089206.685 7
  23025073.643   -10604649.456 6  -8176786.642 6
  21552132.322     1956798.282 7   1524779.036 8
  24656194.447    -2854567.332 4  -2166349.700 4
  21568507.260    -5460388.010 7  -4254843.669 9
  25358889.885     9103200.964 4   7093400.984 2
  24996272.549    17397860.298 3  13556760.810 1
  22960853.799      -90356.036 6    -70401.641 6
 94  2 17 22 26  0.0020000  0  8 18  2 19 16 27 28 29 31
  22416026.244    10476953.007 6   8163857.154 7
  23016300.174   -10650758.761 6  -8212715.900 7
  21557019.127     1982473.493 7   1544785.708 8
  24656828.088    -2851220.803 5  -2163742.022 4
  21564418.197    -5481882.344 7  -4271592.497 9
  25376179.978     9194088.386 3   7164222.314 1
  25019282.627    17518766.906 3  13650973.604 1
  22969391.111      -45484.142 6    -35436.516 6
 94  2 17 22 26 30.0020000  0  8 18  2 19 16 27 28 29 31
  22434327.361    10573118.642 6   8238791.371 7
  23007578.088   -10696579.533 6  -8248420.327 7
  21561948.830     2008391.252 7   1564981.367 8
  24657560.971    -2847383.928 5  -2160752.233 3
  21560366.869    -5503167.241 7  -4288178.113 9
  25393546.666     9285338.268 4   7235326.081 1
  25042322.564    17639832.766 3  13745310.465 1
  22978045.010         -30.843 6       -18.348 6
 94  2 17 22 27  0.0020000  0  8 18  2 19 16 27 28 29 31
  22452690.486    10669608.613 7   8313978.310 7
  22998910.236   -10742127.048 6  -8283911.825 7
  21566921.978     2034520.336 7   1585341.691 8
  24658381.455    -2843062.318 5  -2157384.730 3
  21556350.635    -5524271.147 7  -4304622.703 9
  25410977.752     9376942.698 3   7306706.136 2
  25065378.650    17761006.168 3  13839731.141 2
  22986797.393       45963.702 6     35821.557 6
 94  2 17 22 27 30.0020000  0  8 18  2 19 16 27 28 29 31
  22471110.049    10766416.067 7   8389412.642 7
  22990293.268   -10787411.244 6  -8319198.147 7
  21571927.205     2060826.865 7   1605840.286 8
  24659293.736    -2838261.577 5  -2153643.894 4
  21552366.525    -5545213.685 7  -4320941.544 9
  25428469.385     9468881.760 3   7378346.920 2
  25088452.932    17882248.314 3  13934205.392 3
  22995647.072       92484.092 6     72071.211 6
 94  2 17 22 28  0.0020000  0  8 18  2 19 16 27 28 29 31
  22489598.252    10863569.587 7   8465116.642 7
  22981729.682   -10832418.605 6  -8354268.744 7
  21576971.221     2087318.224 7   1626482.909 8
  24660303.393    -2832951.362 5  -2149506.071 4
  21548414.439    -5565984.155 7  -4337126.301 9
  25446035.432     9561156.693 3   7450249.405 1
  25111546.838    18003580.743 3  14028749.995 3
  23004603.424      139555.677 6    108750.381 6
 94  2 17 22 28 30.0020000  0  8 18  2 19 16 27 28 29 31
  22508143.377    10961031.457 7   8541060.911 7
  22973204.064   -10877216.308 6  -8389175.977 7
  21582034.939     2113938.346 7   1647225.861 8
  24661402.768    -2827176.471 5  -2145006.152 4
  21544482.557    -5586634.668 7  -4353217.589 8
  25463644.158     9653710.495 3   7522369.213 2
  25134631.478    18124949.979 4  14123323.267 3
  23013658.260      187124.830 6    145817.247 6
 94  2 17 22 29  0.0020000  0  7 18  2 19 16 27 29 31
  22526773.393    11058923.695 7   8617340.519 7
  22964737.736   -10921698.517 6  -8423837.377 7
  21587146.627     2140800.371 7   1668157.300 8
  24662613.822    -2820815.796 5  -2140049.785 4
  21540602.877    -5607034.632 7  -4369113.642 9
  25157764.963    18246471.161 5  14218014.960 3
  23022827.033      235315.956 6    183368.773 6
 94  2 17 22 29 30.0020000  0  7 18  2 19 16 27 29 31
  22545511.002    11157396.837 7   8694072.788 7
  22956359.463   -10965725.954 6  -8458144.414 7
  21592332.338     2168056.967 7   1689396.211 8
  24663963.611    -2813719.747 5  -2134520.386 5
  21536798.572    -5627026.434 7  -4384691.650 9
  25180950.768    18368319.354 5  14312961.449 4
  23032149.518      284292.243 6    221532.114 6
 94  2 17 22 30  0.0020000  0  7 18  2 19 16 27 29 31
  22564262.072    11255936.843 7   8770857.155 7
  22947974.354   -11009803.360 6  -8492490.377 7
  21597504.400     2195223.993 7   1710565.314 8
  24665361.432    -2806390.895 5  -2128809.598 5
  21532974.916    -5647110.565 7  -4400341.612 9
  25204104.228    18490009.812 4  14407785.053 4
  23041518.736      333544.563 6    259910.525 6
 94  2 17 22 30 30.0020000  0  7 18  2 19 16 27 29 31
  22583085.955    11354858.345 7   8847938.806 7
  22939639.228   -11053592.169 6  -8526611.472 7
  21602720.619     2222641.234 7   1731929.400 8
  24666856.713    -2798507.502 5  -2122666.681 5
  21529200.979    -5666958.855 7  -4415807.795 9
  25227292.205    18611857.291 4  14502731.026 3
  23051008.119      383401.657 6    298760.191 6
 94  2 17 22 31  0.0020000  0  7 18  2 19 16 27 29 31
  22601975.002    11454106.365 7   8925274.877 7
  22931360.033   -11097111.339 6  -8560522.446 7
  21607978.861     2250281.238 7   1753467.072 8
  24668463.424    -2790102.431 5  -2116117.262 5
  21525458.932    -5686609.678 7  -4431120.112 9
  25250502.447    18733835.925 3  14597779.176 3
  23060602.705      433821.548 6    338048.391 6
 94  2 17 22 31 30.0020000  0  7 18  2 19 16 27 29 31
  22620925.189    11553703.924 7   9002883.311 7
  22923137.986   -11140319.397 7  -8594190.994 7
  21613290.838     2278179.506 7   1775205.990 8
  24670159.674    -2781152.785 4  -2109143.479 4
  21521762.775    -5706037.227 7  -4446258.442 9
  25273745.158    18855972.531 3  14692950.418 4
  23070304.377      484816.643 6    377784.806 6
 94  2 17 22 32  0.0020000  0  7 18  2 19 16 27 29 31
  22639949.260    11653671.091 7   9080779.751 7
  22914978.979   -11183183.070 6  -8627591.206 7
  21618651.229     2306359.783 7   1797164.653 8
  24671968.455    -2771641.895 5  -2101732.394 4
  21518112.721    -5725223.240 7  -4461208.568 9
  25297017.557    18978266.356 3  14788244.165 2
  23080122.572      536407.266 6    417985.276 6
 94  2 17 22 32 30.0020000  0  7 18  2 19 16 27 29 31
  22659040.783    11753982.274 7   9158944.255 7
  22906882.900   -11225730.704 6  -8660745.130 7
  21624060.939     2334783.609 7   1819313.101 8
  24673882.205    -2761598.762 5  -2093906.564 3
  21514505.182    -5744176.315 7  -4475977.188 9
  25320316.244    19100681.626 3  14883632.514 2
  23090049.916      588576.243 6    458636.405 6
 94  2 17 22 33  0.0020000  0  7 18  2 19 16 27 29 31
  22678172.900    11854542.153 7   9237302.544 7
  22898825.369   -11268077.481 6  -8693742.552 7
  21629495.275     2363351.677 7   1841573.931 8
  24675881.572    -2751132.662 5  -2085751.150 2
  21510923.494    -5762994.184 7  -4490640.457 9
  25343614.322    19223117.944 3  14979037.321 3
  23100068.080      641220.113 6    499657.586 6
 94  2 17 22 33 30.0020000  0  7 18  2 19 16 27 29 31
  22697372.119    11955423.654 7   9315911.445 6
  22890815.971   -11310165.953 6  -8726538.707 7
  21634974.494     2392132.430 7   1864000.506 8
  24677956.830    -2740181.695 5  -2077217.939 3
  21507383.244    -5781601.693 7  -4505139.795 9
  25366927.072    19345624.404 3  15074496.772 2
  23110191.041      694406.756 6    541101.699 6
 94  2 17 22 34  0.0020000  0  7 18  2 19 16 27 29 31
  22716625.924    12056605.470 7   9394754.374 6
  22882850.916   -11352012.962 6  -8759146.688 7
  21640487.877     2421108.803 7   1886579.504 8
  24680133.158    -2728762.241 5  -2068319.675 2
  21503878.666    -5800009.851 7  -4519483.798 9
  25390252.088    19468180.110 3  15169994.587 2
  23120411.041      748130.912 6    582964.654 6
 94  2 17 22 34 30.0020000  0  7 18  2 19 16 27 29 31
  22735940.580    12158109.420 7   9473848.312 6
  22874938.658   -11393606.662 6  -8791557.307 7
  21646042.627     2450300.651 7   1909326.396 8
  24682395.502    -2716866.570 5  -2059050.317 3
  21500416.635    -5818205.792 7  -4533662.434 9
  25413590.361    19590810.931 3  15265550.895 2
  23130740.955      802394.006 6    625247.561 6
 94  2 17 22 35  0.0030000  0  7 18  2 19 16 27 29 31
  22755323.069    12259965.912 7   9553216.946 6
  22867077.936   -11434909.333 6  -8823741.148 7
  21651649.944     2479755.934 7   1932278.569 8
  24684752.585    -2704460.515 5  -2049383.261 4
  21496997.327    -5836172.699 7  -4547662.607 9
  25436944.999    19713563.093 3  15361201.782 2
  23141171.507      857224.406 6    667972.535 6
 94  2 17 22 35 30.0030000  0  7 18  2 19 16 27 29 31
  22774777.843    12362219.411 6   9632894.945 6
  22859287.851   -11475848.033 6  -8855641.366 7
  21657311.827     2509525.555 7   1955475.678 8
  24687226.124    -2691469.591 5  -2039260.428 4
  21493636.851    -5853840.165 7  -4561429.441 9
  25460334.905    19836509.886 3  15457004.307 1
  23151726.429      912682.438 6    711186.576 6
 94  2 17 22 36  0.0030000  0  7 18  2 19 16 27 29 31
  22794326.015    12464930.099 6   9712929.197 6
  22851577.296   -11516367.233 7  -8887214.716 7
  21663044.788     2539654.902 7   1978953.099 8
  24689819.827    -2677832.067 5  -2028633.802 5
  21490338.819    -5871167.007 7  -4574930.857 9
  25483781.679    19959721.068 3  15553012.891 1
  23162413.397      968834.823 6    754941.678 6
 94  2 17 22 36 30.0030000  0  6 18  2 19 16 27 31
  22813934.335    12567965.618 6   9793216.557 6
  22843919.718   -11556609.187 6  -8918572.026 7
  21668820.194     2569997.719 7   2002596.855 8
  24692518.390    -2663681.604 5  -2017607.485 5
  21487077.851    -5888295.633 7  -4588277.815 9
  23173201.022     1025543.204 6    799130.010 6
 94  2 17 22 37  0.0030000  0  7 18  2 19 16 27  7 31
  22833694.413    12671801.379 6   9874127.497 6
  22836406.491   -11596093.507 6  -8949338.969 7
  21674723.421     2601017.737 7   2026768.286 8
  24695400.796    -2648520.055 5  -2005793.296 5
  21483950.007    -5904737.909 7  -4601089.951 9
  25533174.601      -46129.65013
  23184194.507     1083305.590 6    844139.647 6
 94  2 17 22 37 30.0030000  0  7 18  2 19 16 27  7 31
  22853664.429    12776754.769 6   9955909.304 6
  22829094.765   -11634522.572 6  -8979283.651 7
  21680810.788     2633004.713 7   2051693.207 8
  24698536.421    -2632038.151 4  -1992950.257 5
  21481011.593    -5920182.027 7  -4613124.305 9
  25515694.538     -137995.228 3        -0.32811
  23195445.608     1142422.123 6    890204.448 6
 94  2 17 22 38  0.0030000  0  7 18  2 19 16 27  7 31
  22873707.663    12882064.840 6  10037969.044 6
  22821835.976   -11672662.990 6  -9009003.411 7
  21686934.147     2665193.510 7   2076775.377 8
  24701775.265    -2615018.516 5  -1979688.189 5
  21478116.241    -5935395.192 7  -4624978.695 9
  25498214.882     -229860.427 3    -71583.398 1
  23206802.257     1202119.075 6    936721.536 6
 94  2 17 22 38 30.0030000  0  7 18  2 19 16 27  7 31
  22893806.601    12987693.833 7  10120277.294 6
  22814622.327   -11710563.460 6  -9038536.200 7
  21693092.858     2697552.897 7   2101990.483 8
  24705109.327    -2597509.959 5  -1966045.157 4
  21475259.569    -5950401.448 7  -4636671.864 9
  25480725.249     -321754.486 3   -143189.002 2
  23218266.218     1262342.940 6    983649.204 6
 94  2 17 22 39  0.0030000  0  7 18  2 19 16 27  7 31
  22913963.179    13093616.853 7  10202814.672 6
  22807450.476   -11748241.436 6  -9067895.622 7
  21699281.796     2730074.386 7   2127331.894 8
  24708522.483    -2579550.233 5  -1952050.577 4
  21472441.343    -5965219.818 7  -4648218.624 9
  25463233.593     -413708.442 3   -214841.299 1
  23229816.843     1323060.481 6   1030961.555 6
 94  2 17 22 39 30.0030000  0  7 18  2 19 16 27  7 31
  22934159.632    13199735.917 7  10285504.801 6
  22800306.569   -11785786.800 6  -9097151.711 7
  21705486.929     2762684.931 7   2152742.706 8
  24712013.405    -2561248.486 5  -1937789.500 4
  21469641.179    -5979942.327 7  -4659690.691 9
  25445700.843     -505816.769 3   -286613.896 2
  23241449.530     1384178.265 6   1078585.783 6
 94  2 17 22 40  0.0030000  0  7 18  2 19 16 27  7 31
  22954397.780    13306111.262 6  10368394.617 6
  22793205.366   -11823112.042 6  -9126236.267 7
  21711728.733     2795478.711 7   2178296.299 8
  24715569.765    -2542530.980 5  -1923204.416 3
  21466870.351    -5994499.045 7  -4671033.571 9
  25428157.343     -598004.951 3   -358448.665 4
  23253169.952     1445781.073 6   1126587.951 6
 94  2 17 22 40 30.0030000  0  7 18  2 19 16 27  7 31
  22974711.241    13412843.264 6  10451562.362 6
  22786165.546   -11860115.054 6  -9155069.754 7
  21718026.194     2828566.211 7   2204078.766 8
  24719233.780    -2523281.671 5  -1908204.972 4
  21464146.944    -6008802.420 7  -4682179.047 9
  25410619.702     -690175.757 3   -430269.920 1
  23265006.288     1507979.757 6   1175054.435 6
 94  2 17 22 41  0.0030000  0  7 18  2 19 16 27  7 31
  22995078.827    13519880.377 6  10534967.857 6
  22779179.671   -11896816.153 7  -9183667.989 6
  21724370.515     2861906.799 7   2230058.427 8
  24722991.163    -2503529.402 4  -1892813.592 5
  21461466.163    -6022895.357 7  -4693160.545 9
  25393069.530     -782370.005 2   -502109.434 2
  23276949.976     1570741.478 6   1223959.663 5
 94  2 17 22 41 30.0030000  0  7 18  2 19 16 27  7 31
  23015519.218    13627305.965 7  10618676.040 6
  22772267.483   -11933127.746 6  -9211962.649 6
  21730776.499     2895590.977 7   2256305.828 8
  24726861.687    -2483167.744 5  -1876947.378 5
  21458841.858    -6036694.049 7  -4703912.751 9
  25375542.452     -874492.500 3   -573893.056 1
  23289018.835     1634148.818 7   1273367.946 7
 94  2 17 22 42  0.0030000  0  7 18  2 19 16 27  7 31
  23036035.819    13735111.977 6  10702680.669 6
  22765434.272   -11969055.109 7  -9239958.002 7
  21737250.624     2929601.919 7   2282807.859 8
  24730856.319    -2462197.308 4  -1860606.750 2
  21456268.163    -6050206.939 7  -4714442.278 9
  25358021.452     -966543.064 3   -645620.658 2
  23301199.140     1698174.793 6   1323258.333 6
 94  2 17 22 42 30.0030000  0  7 18  2 19 16 27  7 31
  23056614.804    13843253.370 6  10786946.627 6
  22758658.116   -12004644.571 6  -9267690.000 6
  21743772.327     2963879.131 7   2309517.356 8
  24734950.499    -2440671.074 5  -1843833.082 2
  21453748.929    -6063456.484 7  -4724766.584 9
  25340516.577    -1058554.238 3   -717317.556 1
  23313491.468     1762762.368 6   1373586.313 6
 94  2 17 22 43  0.0030000  0  7 18  2 19 16 27  7 31
  23077247.608    13951691.425 6  10871443.742 6
  22751946.812   -12039920.378 6  -9295177.607 7
  21750342.858     2998398.994 7   2336415.956 8
  24739143.796    -2418626.499 5  -1826655.490 3
  21451271.522    -6076454.973 7  -4734895.270 9
  25323009.890    -1150549.209 3
  23325881.226     1827869.193 6   1424318.899 6
 94  2 17 22 43 30.0030000  0  7 18  2 19 16 27  7 31
  23097938.507    14060427.099 6  10956172.814 6
  22745292.233   -12074888.120 6  -9322425.175 7
  21756957.632     3033167.746 7   2363508.477 8
  24743441.687    -2396062.583 5  -1809073.198 2
  21448852.874    -6089188.960 7  -4744817.839 9
  25305510.280    -1242521.799 3    -35830.08811
  23338371.507     1893505.357 6   1475463.950 6
 94  2 17 22 44  0.0030000  0  7 18  2 19 16 27  7 31
  23118688.186    14169463.551 6  11041136.221 6
  22738695.718   -12109552.268 6  -9349436.162 7
  21763622.101     3068179.616 7   2390790.448 8
  24747834.741    -2372979.601 4  -1791086.507 3
  21446481.929    -6101637.447 7  -4754517.949 8
  25288017.015    -1334458.628 4   -107469.051 1
  23350966.811     1959701.840 6   1527045.621 6
 94  2 17 22 44 30.0030000  0  7 18  2 19 16 27  7 31
  23139490.702    14278782.131 6  11126319.475 6
  22732152.999   -12143949.048 7  -9376238.808 7
  21770325.936     3103417.993 7   2418248.914 8
  24752316.858    -2349405.817 5  -1772717.347 3
  21444160.952    -6113828.426 7  -4764017.415 9
  25270522.663    -1426389.692 4   -179103.517 2
  23363670.772     2026448.555 6   1579056.051 6
 94  2 17 22 45  0.0030000  0  7 18  2 19 16 27  7 31
  23160352.726    14388395.581 6  11211732.499 6
  22725654.694   -12178084.584 7  -9402837.885 7
  21777077.882     3138896.526 7   2445894.532 8
  24756903.413    -2325328.531 5  -1753955.826 3
  21441887.710    -6125782.850 7  -4773332.539 9
  25253028.757    -1518314.635 5   -250733.234 2
  23376473.835     2093744.299 6   1631494.283 6
 94  2 17 22 45 30.0030000  0  7 18  2 19 16 27  7 31
  23181269.921    14498322.096 6  11297389.465 6
  22719210.897   -12211959.846 7  -9429234.133 7
  21783877.733     3174628.973 7   2473737.995 8
  24761578.343    -2300742.845 5  -1734798.172 5
  21439660.116    -6137486.936 7  -4782452.603 9
  25235546.249    -1610209.094 4   -322339.190 2
  23389389.897     2161607.369 6   1684374.586 6
 94  2 17 22 46  0.0030000  0  7 18  2 19 16 27  7 31
  23202249.421    14608565.656 6  11383293.484 6
  22712813.546   -12245569.790 6  -9455423.643 7
  21790728.991     3210626.263 7   2501787.830 8
  24766354.452    -2275659.336 5  -1715252.608 4
  21437478.569    -6148950.917 7  -4791385.562 9
  25218062.202    -1702063.494 5   -393913.926 1
  23402405.710     2230016.314 6   1737680.243 6
 94  2 17 22 46 30.0030000  0  7 18  2 19 16 27  7 31
  23223286.280    14719123.291 6  11469442.218 6
  22706472.624   -12278884.267 6  -9481382.929 7
  21797632.929     3246912.455 7   2530062.777 8
  24771224.132    -2250071.212 5  -1695313.812 5
  21435342.960    -6160172.363 7  -4800129.537 9
  25200591.718    -1793872.186 3   -465453.080 1
  23415524.327     2298949.327 7   1791394.254 6
 94  2 17 22 47  0.0030000  0  7 18  2 19 16 27  7 31
  23244379.952    14829977.071 6  11555821.729 6
  22700193.194   -12311890.919 7  -9507102.352 8
  21804591.632     3283483.876 7   2558559.985 8
  24776189.390    -2223982.865 5  -1674985.250 4
  21433254.851    -6171138.660 7  -4808674.693 9
  25183135.749    -1885630.734 5   -536953.076 2
  23428741.655     2368401.058 6   1845512.471 6
 94  2 17 22 47 30.0030000  0  7 18  2 19 16 27  7 31
  23265529.194    14941105.504 6  11642415.256 6
  22693968.726   -12344592.871 7  -9532584.334 8
  21811602.702     3320325.013 7   2587267.360 8
  24781245.741    -2197408.236 5  -1654277.759 4
  21431219.694    -6181843.289 7  -4817015.967 8
  25165677.991    -1977348.625 4   -608421.443 2
  23442058.155     2438379.773 6   1900041.322 6
 94  2 17 22 48  0.0030000  0  7 18  2 19 16 27  7 31
  23286728.936    15052510.748 6  11729224.473 6
  22687806.046   -12376975.329 7  -9557817.373 8
  21818660.390     3357423.997 7   2616175.659 8
  24786397.890    -2170323.890 5  -1633173.081 2
  21429234.202    -6192284.608 7  -4825152.058 9
  25148229.179    -2069037.082 5   -679866.848 2
  23455473.054     2508884.334 6   1954979.920 6
 94  2 17 22 48 30.0030000  0  7 18  2 19 16 27  7 31
  23307983.155    15164209.036 6  11816262.043 6
  22681703.921   -12409045.427 7  -9582807.012 8
  21825767.538     3394760.473 7   2645269.010 8
  24791654.163    -2142723.131 5  -1611666.016 3
  21427297.436    -6202458.626 7  -4833079.861 9
  25130785.905    -2160697.263 4   -751290.225 2
  23468993.882     2579928.424 6   2010338.931 6
 94  2 17 22 49  0.0030000  0  7 18  2 19 16 27  7 31
  23329297.030    15276215.456 6  11903539.712 6
  22675656.804   -12440833.519 7  -9607576.902 8
  21832912.804     3432317.783 7   2674534.447 8
  24797002.929    -2114617.294 5  -1589765.390 3
  21425410.046    -6212366.464 7  -4840800.249 9
  25113350.522    -2252327.680 4   -822690.371 1
  23482617.538     2651523.212 6   2066127.051 6
 94  2 17 22 49 30.0030000  0  7 18  2 19 16 27  7 31
  23350674.491    15388546.177 6  11991070.109 6
  22669660.507   -12472344.598 7  -9632130.933 7
  21840103.991     3470094.101 7   2703970.515 8
  24802440.968    -2085996.831 4  -1567463.743 2
  21423575.444    -6222007.033 7  -4848312.390 8
  25095925.788    -2343913.572 5   -894055.775 2
  23496345.882     2723666.306 6   2122342.409 6
 94  2 17 22 50  0.0030000  0  7 18  2 19 16 27  7 31
  23372106.835    15501176.679 6  12078834.065 6
  22663712.858   -12503592.126 7  -9656479.613 8
  21847325.655     3508064.785 7   2733558.058 8
  24807981.765    -2056889.794 5  -1544782.976 4
  21421791.022    -6231397.359 7  -4855629.509 9
  25078504.124    -2435468.909 4   -965397.343 1
  23510169.437     2796316.200 6   2178952.735 6
 94  2 17 22 50 30.0030000  0  7 18  2 19 16 27  7 31
  23393596.374    15614108.282 6  12166832.653 6
  22657817.851   -12534562.163 7  -9680612.055 8
  21854597.280     3546255.519 7   2763317.068 8
  24813620.226    -2027293.727 5  -1521721.135 3
  21420053.921    -6240518.908 7  -4862737.205 9
  25061091.444    -2526957.320 5  -1036686.766 2
  23524094.101     2869485.773 6   2235967.971 6
 94  2 17 22 51  0.0030000  0  7 18  2 19 16 27  7 31
  23415141.468    15727321.934 6  12255051.027 6
  22651981.382   -12565241.414 7  -9704517.920 8
  21861908.397     3584688.233 7   2793264.624 8
  24819343.515    -1997194.494 5  -1498267.190 4
  21418371.202    -6249366.319 7  -4869631.289 9
  25043690.202    -2618374.310 4  -1107920.542 2
  23538116.569     2943171.954 6   2293385.768 6
 94  2 17 22 51 30.0030000  0  7 18  2 19 16 27  7 31
  23436733.194    15840791.874 6  12343469.107 5
  22646204.452   -12595608.778 7  -9728180.749 8
  21869271.280     3623364.635 7   2823402.076 8
  24825164.765    -1966583.584 5  -1474414.560 2
  21416736.202    -6257950.719 7  -4876320.422 9
  25026307.038    -2709731.121 5  -1179107.389 3
  23552235.280     3017363.464 6   2351197.318 6
 94  2 17 22 52  0.0030000  0  7 18  2 19 16 27  7 31
  23458371.718    15954507.969 6  12432078.989 5
  22640483.983   -12625666.315 7  -9751602.168 8
  21876679.163     3662307.421 7   2853747.092 8
  24831090.421    -1935460.709 5  -1450162.978 2
  21415149.452    -6266285.115 7  -4882814.750 9
  25008938.562    -2801031.367 5  -1250250.162 1
  23566447.444     3092059.225 6   2409401.792 6
 94  2 17 22 52 30.0030000  0  7 18  2 19 16 27  7 31
  23480060.522    16068480.080 6  12520888.374 6
  22634819.858   -12655428.814 7  -9774793.678 8
  21884146.226     3701538.941 7   2884317.094 8
  24837113.101    -1903819.066 5  -1425507.205 4
  21413612.460    -6274369.304 7  -4889114.112 9
  24991568.069    -2892276.429 4  -1321349.959 2
  23580758.015     3167262.132 6   2468001.434 6
 94  2 17 22 53  0.0030000  0  7 18  2 19 16 27  7 31
  23501798.772    16182702.785 6  12609893.016 6
  22629212.304   -12684901.511 7  -9797759.383 8
  21891663.249     3741049.903 7   2915104.848 8
  24843228.015    -1871673.569 5  -1400458.801 4
  21412119.663    -6282209.246 7  -4895223.158 9
  24974210.976    -2983480.187 4  -1392417.560 3
  23595162.804     3242963.794 6   2526989.728 6
 94  2 17 22 53 30.0030000  0  7 18  2 19 16 27  7 31
  23523580.780    16297174.559 6  12699091.739 6
  22623655.804   -12714097.213 7  -9820509.237 8
  21899233.937     3780825.744 7   2946098.994 8
  24849437.515    -1839053.583 5  -1375040.653 5
  21410673.015    -6289804.890 7  -4901141.835 9
  24956866.804    -3074635.658 5  -1463447.517 4
  23609661.983     3319149.598 6   2586355.267 6
 94  2 17 22 54  0.0030000  0  7 18  2 19 16 27  7 31
  23545415.679    16411924.543 6  12788507.252 6
  22618149.226   -12743027.851 6  -9843052.551 8
  21906855.507     3820877.103 7   2977307.844 8
  24855730.624    -1805965.887 5  -1349258.049 5
  21409282.983    -6297130.561 7  -4906850.138 9
  24939536.788    -3165717.115 5  -1534419.811 3
  23624252.413     3395838.280 6   2646112.662 6
 94  2 17 22 54 30.0030000  0  7 18  2 19 16 27  7 31
  23567304.593    16526943.139 6  12878132.069 6
  22612697.116   -12771679.516 7  -9865378.479 8
  21914522.124     3861176.367 7   3008709.855 8
  24862115.960    -1772422.379 4  -1323120.292 4
  21407939.390    -6304181.105 7  -4912344.063 9
  24922224.265    -3256713.413 5  -1605325.813 2
  23638943.897     3473023.361 6   2706256.870 6
 94  2 17 22 55  0.0030000  0  7 18  2 19 16 27  7 31
  23589239.186    16642228.992 6  12967965.133 6
  22607303.976   -12800024.940 7  -9887465.788 8
  21922238.749     3901722.336 7   3040304.116 8
  24868588.233    -1738410.675 5  -1296617.689 4
  21406649.577    -6310956.333 7  -4917623.459 9
  24904918.186    -3347603.450 4  -1676148.985 4
  23653729.491     3550727.492 6   2766805.525 6
 94  2 17 22 55 30.0030000  0  7 18  2 19 16 27  7 31
  23611231.679    16757779.453 6  13058004.384 6
  22601967.679   -12828073.828 7  -9909322.027 8
  21930003.554     3942524.605 7   3072098.068 8
  24875154.272    -1703929.398 5  -1269749.196 4
  21405408.796    -6317466.643 7  -4922696.427 9
  24887647.960    -3438394.984 5  -1746895.438 2
  23668613.593     3628952.493 6   2827760.035 6
 94  2 17 22 56  0.0030000  0  7 18  2 19 16 27  7 31
  23633267.726    16873582.673 6  13148240.590 6
  22596686.444   -12855824.716 7  -9930946.057 7
  21937816.374     3983591.095 7   3104097.928 8
  24881806.436    -1668964.912 5  -1242504.164 4
  21404222.108    -6323708.520 7  -4927560.224 9
  24870387.780    -3529104.738 5  -1817578.201 4
  23683600.460     3707692.918 6   2889116.189 6
 94  2 17 22 56 30.0030000  0  7 18  2 19 16 27  7 31
  23655349.968    16989627.966 6  13238665.445 6
  22591465.577   -12883260.289 7  -9952324.393 7
  21945681.671     4024925.502 7   3136306.549 8
  24888556.663    -1633501.105 5  -1214870.067 4
  21403086.507    -6329678.945 7  -4932212.494 9
  24853137.218    -3619742.907 5  -1888205.185 4
  23698676.593     3786936.061 6   2950864.065 6
 94  2 17 22 57  0.0030000  0  7 18  2 19 16 27  7 31
  23677482.444    17105925.317 6  13329286.696 6
  22586302.038   -12910402.690 7  -9973474.280 7
  21953602.054     4066538.548 7   3168732.296 8
  24895395.022    -1597541.244 5  -1186849.421 4
  21402002.444    -6335369.868 7  -4936646.975 9
  24835901.366    -3710329.157 5  -1958791.728 3
  23713853.866     3866682.743 6   3013004.310 6
 94  2 17 22 57 30.0030000  0  7 18  2 19 16 27  7 31
  23699661.733    17222488.862 6  13420115.371 6
  22581189.694   -12937257.108 7  -9994399.764 7
  21961574.202     4108423.650 7   3201370.026 9
  24902330.812    -1561093.632 5  -1158448.737 4
  21400977.624    -6340756.211 7  -4940844.126 9
  24818674.655    -3800849.426 5  -2029326.885 5
  23729121.022     3946916.891 6   3075524.385 6
 94  2 17 22 58  0.0030000  0  7 18  2 19 16 27  7 31
  23721895.921    17339322.003 6  13511154.120 6
  22576137.968   -12963809.621 7 -10015090.012 7
  21969591.561     4150564.277 7   3234206.873 9
  24909361.749    -1524158.581 5  -1129668.203 4
  21400013.749    -6345832.433 7  -4944799.622 9
  24801463.179    -3891284.470 5  -2099795.632 3
  23744481.265     4027630.932 6   3138418.409 6
 94  2 17 22 58 30.0030000  0  7 18  2 19 16 27  7 31
  23744175.429    17456421.319 6  13602400.267 6
  22571142.515   -12990060.551 7 -10035545.253 7
  21977660.163     4192955.201 7   3267238.764 8
  24916477.608    -1486752.828 5  -1100520.888 4
  21399101.483    -6350623.978 7  -4948533.289 9
  24784272.851    -3981621.392 5  -2170187.908 3
  23759932.749     4108828.204 6   3201688.995 5
 94  2 17 22 59  0.0030000  0  7 18  2 19 16 27  7 31
  23766509.679    17573776.462 6  13693845.776 6
  22566201.577   -13016012.547 7 -10055767.553 7
  21985771.819     4235587.695 7   3300458.898 9
  24923686.679    -1448890.861 5  -1071018.082 5
  21398241.351    -6355143.007 7  -4952054.617 9
  24767100.288    -4071843.228 5  -2240490.525 2
  23775476.077     4190508.402 6   3265335.880 6
 94  2 17 22 59 30.0030000  0  7 18  2 19 16 27  7 31
  23788886.343    17691359.702 6  13785469.012 6
  22561319.788   -13041666.224 7 -10075757.408 7
  21993928.249     4278451.388 7   3333859.162 8
  24930973.186    -1410589.145 5  -1041172.579 5
  21397429.827    -6359407.363 7  -4955377.480 9
  24749954.569    -4161951.224 5  -2310704.418 4
  23791107.835     4272652.561 6   3329344.305 5
